GFSWCAN_850_thetae_078.txt.gz
Theta_e
300 290 294 297 298 299 298 298 298 299 305 305 305 305 304 304 302 304 305 305 306 302 298 300 301 302 304 305 310 307 308 309 309 310 310 309 309 307 308 306 308 310 311 311 309 311 309 303 305 308 306 301 303 302
300 291 296 298 298 299 298 298 298 300 305 306 305 305 304 303 302 304 306 305 306 305 300 300 300 302 303 304 305 305 306 306 306 309 307 307 307 306 307 309 304 309 308 309 309 309 303 302 304 303 303 303 302 302
300 292 297 298 299 298 297 298 298 302 305 305 305 304 304 304 303 302 304 304 304 302 300 300 300 301 302 304 304 306 306 306 306 305 306 306 309 305 309 309 307 305 302 307 306 305 304 302 302 302 302 302 302 302
299 292 297 298 298 297 298 298 297 303 304 305 305 304 304 304 304 302 302 304 304 304 304 300 301 302 303 305 305 306 306 307 306 305 305 307 308 302 306 304 306 305 303 306 306 304 301 302 302 302 302 301 301 300
297 292 297 298 298 297 298 297 295 301 304 304 304 305 304 304 304 303 302 302 303 303 302 299 301 302 303 304 305 306 306 306 305 306 306 307 301 302 299 300 305 302 306 307 308 304 303 302 301 302 301 300 300 298
296 292 297 298 297 297 298 297 297 297 304 304 303 303 304 304 304 303 302 303 302 304 303 303 299 300 301 303 303 304 304 305 303 302 300 298 298 300 304 305 304 301 302 302 303 301 301 301 301 301 300 300 298 297
296 292 297 298 297 298 302 303 303 296 304 305 303 303 302 302 304 301 300 301 301 301 303 300 300 299 299 301 302 302 302 302 301 299 299 299 298 299 301 305 301 298 300 300 300 300 300 300 299 300 299 298 297 295
294 292 297 298 297 301 303 302 303 300 303 304 303 303 301 300 300 301 300 301 301 300 301 299 299 298 298 299 300 300 299 299 298 297 296 298 296 297 302 301 298 297 298 299 299 299 299 298 298 298 298 297 294 291
293 292 297 298 297 302 303 301 301 301 304 303 303 302 300 300 300 300 300 300 299 299 298 298 303 304 297 297 298 298 298 301 297 299 298 297 298 301 301 298 297 298 299 299 299 299 298 296 295 295 293 291 291 291
293 293 297 298 297 302 302 303 303 303 302 301 301 301 300 300 299 299 299 299 300 299 297 299 295 300 297 296 297 298 296 299 302 298 295 298 301 299 297 298 297 298 299 299 298 296 296 294 293 292 291 291 291 291
293 293 297 298 297 301 302 303 302 302 301 300 299 298 298 299 299 298 297 297 296 296 294 295 296 297 296 299 300 296 298 296 301 299 300 301 301 299 298 298 298 298 299 298 298 296 293 292 292 292 291 291 290 289
292 293 297 298 297 300 302 302 302 302 302 299 298 298 298 298 297 295 294 292 294 298 293 295 295 296 296 296 298 296 298 295 301 295 298 300 300 297 297 298 298 298 298 298 297 294 292 292 291 292 291 290 289 288
291 294 297 298 297 299 302 302 301 301 299 298 298 298 296 294 294 295 295 295 294 293 293 294 296 296 295 295 295 296 297 299 294 297 299 299 295 297 298 298 298 298 298 298 296 293 291 291 292 291 289 288 288 288
291 293 297 298 298 298 301 301 301 299 298 297 297 293 295 294 294 296 297 297 293 294 294 296 294 296 295 296 295 297 296 295 295 295 299 299 296 297 298 298 298 298 297 295 293 292 291 292 291 289 288 288 288 288
291 293 297 298 298 298 301 301 300 299 297 298 296 295 294 293 291 291 292 293 293 294 296 295 293 294 295 295 295 295 294 295 296 300 299 295 296 297 298 298 297 297 295 294 292 291 292 291 289 289 288 288 288 288
291 294 297 298 298 298 300 301 299 298 297 297 294 292 290 290 291 291 291 292 294 295 296 295 293 294 296 296 295 295 296 298 301 295 294 296 296 297 297 297 297 296 295 293 292 292 290 289 288 288 288 288 286 285
290 294 296 298 298 298 298 300 299 298 299 297 293 292 292 292 292 292 292 293 294 295 297 293 293 296 291 294 294 294 297 299 294 294 297 297 297 297 297 297 296 295 293 292 291 289 288 288 288 288 286 285 285 285
290 292 296 298 298 298 298 299 299 298 295 295 293 294 293 293 293 294 293 293 294 294 292 293 290 293 295 296 296 295 292 292 294 296 297 297 297 297 296 296 294 292 291 289 289 289 288 288 287 286 285 285 285 285
291 291 297 298 298 298 299 297 298 295 295 294 295 294 293 294 293 294 294 294 294 294 291 290 290 294 295 292 295 293 294 295 296 296 295 295 296 295 293 292 291 290 289 289 288 288 287 286 285 285 285 285 285 284
290 293 297 299 298 298 297 297 296 297 290 294 293 293 293 294 294 293 294 293 293 292 290 290 292 294 295 296 296 297 296 296 296 295 294 293 293 292 292 291 289 289 289 288 288 286 286 285 285 285 285 284 283 283
294 295 297 299 298 298 297 295 294 295 296 293 292 292 292 291 292 291 292 292 292 290 291 294 295 296 296 296 297 297 296 296 296 296 295 293 292 292 290 289 289 289 288 288 286 286 286 286 286 285 284 283 283 282
296 297 298 299 298 297 297 295 294 293 291 290 291 293 290 289 289 290 291 291 291 294 295 295 296 296 296 296 296 296 296 295 294 294 294 293 292 290 289 289 289 288 287 286 286 286 286 286 285 284 283 283 282 281
297 297 298 298 296 293 292 292 291 290 289 288 288 288 288 289 290 290 290 293 294 295 296 296 295 295 295 295 295 295 294 294 293 292 292 291 290 289 289 289 288 287 286 286 286 286 286 285 284 283 282 282 281 281
297 298 298 296 292 290 288 288 290 289 288 287 288 289 286 287 287 287 291 290 295 295 295 296 294 294 294 294 295 294 294 293 292 291 290 290 289 289 289 288 287 286 286 286 285 285 285 284 283 282 282 281 281 280
297 295 294 291 290 289 290 289 289 290 288 288 288 286 285 285 290 290 289 293 295 294 296 294 294 295 295 295 294 293 293 292 291 291 290 289 289 289 288 287 286 286 285 285 285 285 284 283 282 282 281 281 281 280
297 293 292 290 289 291 290 290 289 288 286 285 287 284 285 289 291 294 290 297 295 296 296 295 295 294 295 295 294 294 293 291 290 290 289 289 289 288 287 286 286 286 285 285 285 284 283 283 282 281 281 281 280 280
292 290 290 291 291 290 289 289 288 287 287 285 285 284 288 293 294 292 298 298 296 297 297 297 296 297 296 295 294 294 291 290 290 290 289 289 288 286 286 286 286 286 285 285 284 284 283 282 282 281 281 280 280 279
292 289 290 288 288 289 287 287 288 290 290 289 289 290 294 296 296 296 295 295 295 297 296 296 296 296 296 295 294 293 290 290 289 289 289 287 286 286 286 286 286 285 285 285 284 283 282 282 282 281 280 280 280 279
288 289 291 283 283 286 287 290 291 295 294 290 296 292 292 297 298 296 294 293 294 295 294 294 294 294 294 293 293 291 291 290 289 289 288 287 286 286 286 286 285 285 285 284 283 283 282 282 281 281 280 280 279 279
287 288 283 282 285 288 287 289 291 292 292 294 296 294 293 294 298 300 298 294 295 295 293 293 294 294 294 293 291 290 290 289 289 288 287 286 286 286 286 286 286 285 284 284 283 282 281 281 280 280 280 280 279 279
288 288 282 281 280 283 284 286 287 288 289 292 293 293 292 293 297 298 297 292 293 294 291 292 293 293 293 292 291 290 289 288 287 286 286 286 286 286 286 286 285 284 284 283 282 282 281 280 280 280 280 279 279 279
288 285 281 279 279 283 285 287 288 288 287 287 290 290 289 291 292 295 295 292 292 291 291 292 293 293 292 291 291 291 291 289 287 286 286 286 286 286 286 286 285 284 283 282 282 281 281 280 280 280 280 279 279 279
284 284 284 283 283 283 286 287 287 285 287 285 284 285 287 292 291 292 294 292 292 291 292 292 293 291 290 290 289 288 287 286 286 286 286 286 286 286 286 285 284 283 283 282 281 281 281 280 280 280 279 279 279 279

GFSWCAN_850_thetae_081.txt.gz
Theta_e
304 303 293 295 298 299 299 298 300 305 305 305 305 305 304 302 304 305 306 306 307 304 300 301 302 305 307 309 311 310 310 311 311 311 311 310 310 310 310 309 310 311 312 312 312 313 312 306 306 309 308 305 306 306
305 304 292 295 298 299 297 298 299 305 305 304 304 303 302 302 304 306 306 306 307 306 301 302 302 303 304 304 306 307 309 310 310 310 310 310 309 309 309 310 307 310 310 310 310 311 306 306 307 305 305 306 305 305
305 304 292 294 298 299 297 298 298 305 305 304 304 303 303 302 302 304 305 306 306 304 302 302 301 303 304 305 305 307 308 307 307 307 309 310 310 309 309 309 309 308 306 308 308 308 307 306 305 304 303 304 303 303
305 304 292 295 298 297 298 298 297 304 305 305 304 304 304 303 302 302 304 305 306 305 308 302 303 303 304 305 305 305 305 306 306 306 309 310 309 306 309 307 308 308 306 308 308 308 306 305 304 304 302 302 302 301
306 304 293 296 298 297 297 297 296 304 305 305 305 304 304 304 303 302 302 303 304 306 307 303 302 302 304 305 305 305 305 305 306 309 310 309 305 305 304 304 307 305 308 308 308 307 306 304 302 302 302 301 300 300
306 305 293 296 298 297 296 295 296 303 304 304 304 304 304 304 304 303 303 302 304 305 305 307 302 301 302 304 304 304 305 305 304 306 307 303 300 303 307 308 307 306 305 305 306 302 302 302 301 301 300 299 299 298
306 305 292 296 297 296 300 300 301 297 304 304 303 303 303 304 303 303 301 301 301 302 304 304 304 300 301 302 303 303 303 303 303 303 304 303 302 302 306 307 305 302 303 301 301 301 301 301 301 300 299 299 298 297
306 304 293 296 297 299 302 302 303 298 301 304 304 303 302 302 303 301 300 300 301 300 302 305 305 301 300 302 303 301 302 301 301 302 300 301 300 300 304 305 301 299 299 300 300 300 300 299 299 299 298 298 296 292
306 305 292 295 297 301 302 303 303 299 303 304 303 303 301 301 301 301 300 300 300 299 303 303 307 307 299 300 300 301 300 305 300 302 301 300 303 304 305 304 301 300 300 300 299 299 299 298 296 296 295 292 291 291
306 305 293 295 297 302 303 301 301 304 304 303 302 302 301 301 301 300 300 299 300 299 298 302 300 303 300 300 301 302 300 304 305 302 298 300 303 303 301 299 298 299 299 299 298 297 297 296 294 293 292 291 291 291
306 304 293 296 298 302 303 303 303 303 302 301 300 299 298 299 299 299 299 300 299 300 298 298 300 300 298 303 304 300 303 301 304 303 302 305 304 302 299 299 298 298 298 299 298 298 296 294 293 292 292 292 291 290
306 305 293 297 297 302 302 303 301 301 300 300 299 299 299 299 298 298 302 296 297 302 295 298 297 298 297 298 301 298 302 299 304 299 301 303 305 300 298 298 298 298 298 298 298 296 294 292 292 292 292 291 290 288
306 305 293 296 297 300 302 302 301 302 300 298 299 299 298 296 299 299 301 301 299 296 295 296 298 297 296 297 298 299 300 302 297 300 302 304 299 297 298 298 298 298 298 298 297 295 293 292 292 292 291 289 288 288
306 305 294 296 298 299 302 302 301 301 298 298 297 298 300 299 298 302 300 301 297 297 296 298 296 298 297 298 298 300 299 297 299 299 302 304 298 297 298 298 299 298 298 298 297 294 292 291 292 291 289 288 288 288
306 304 293 296 298 298 301 302 301 301 298 297 296 300 299 298 295 294 293 293 293 295 296 297 296 297 298 298 298 297 297 298 299 304 307 300 297 298 298 298 298 298 298 297 294 293 291 292 291 289 288 288 288 287
305 297 292 295 298 298 300 302 301 300 298 297 295 296 293 294 296 293 293 294 294 295 296 296 297 298 300 300 298 298 299 301 305 301 298 296 297 297 298 298 298 297 296 294 293 292 292 291 289 288 288 288 286 285
301 296 297 295 298 298 300 301 299 299 298 297 296 295 295 295 297 295 294 294 294 295 299 298 297 300 295 298 298 299 300 305 299 295 295 296 297 297 298 298 297 296 295 294 292 291 289 288 288 288 287 286 286 286
301 303 295 296 298 298 299 299 300 299 297 297 297 297 294 294 294 294 294 293 294 296 294 298 293 296 299 300 302 301 296 295 294 295 296 296 297 297 297 297 296 296 294 292 290 289 288 288 287 286 285 286 286 285
303 298 293 297 298 298 298 298 298 297 297 295 296 296 295 295 294 295 294 294 294 295 295 292 295 299 300 298 299 297 296 294 295 296 296 296 297 297 297 296 295 293 291 289 289 288 288 287 286 285 286 285 285 284
301 297 294 298 298 298 298 297 297 298 295 295 294 294 296 295 296 295 294 294 293 294 294 293 295 297 295 296 296 296 296 296 296 296 295 296 296 296 295 293 292 290 289 289 288 288 287 286 286 286 285 284 284 283
296 295 297 298 298 298 298 296 295 295 296 295 293 294 293 292 292 292 292 292 292 294 294 295 297 298 298 297 296 295 296 296 296 297 296 295 295 294 292 291 289 289 289 288 288 286 286 286 286 285 284 284 283 282
295 294 298 298 298 298 298 296 295 294 293 291 291 293 292 291 291 291 292 291 293 295 295 296 298 297 297 297 296 296 296 296 296 296 296 296 294 293 292 290 289 289 288 288 286 286 286 286 285 284 284 283 283 282
295 296 297 298 298 296 294 294 294 292 292 290 290 293 292 292 292 292 291 292 294 296 297 297 298 298 297 297 296 296 295 295 296 295 295 294 294 293 291 289 289 288 288 287 286 286 286 285 284 284 284 283 282 282
294 295 297 297 297 295 290 290 291 291 290 290 291 293 292 292 287 288 292 296 295 296 296 297 296 296 297 296 295 295 295 295 295 294 294 293 292 290 289 289 289 288 287 286 286 285 285 285 284 284 283 282 281 281
296 296 296 294 292 290 290 290 291 292 292 291 291 293 289 286 290 291 293 296 296 296 297 297 296 296 296 296 296 295 295 294 294 293 292 292 291 290 289 289 288 287 286 286 285 285 285 284 284 283 282 282 281 281
297 295 295 294 291 292 291 291 291 292 292 291 291 290 287 289 291 294 296 297 296 298 298 297 296 296 295 296 296 295 295 294 293 292 292 291 290 290 289 289 287 286 286 286 285 285 284 284 283 282 282 281 281 280
299 295 292 291 291 291 291 291 291 292 291 290 289 287 289 291 295 296 298 298 299 300 300 300 298 297 298 297 295 295 295 294 293 292 291 290 289 289 289 287 286 286 286 285 285 284 284 283 282 282 282 281 281 280
294 291 290 290 291 292 290 291 291 292 293 291 289 288 290 294 298 298 299 300 300 300 299 298 298 297 295 296 296 295 294 293 291 290 290 289 289 289 287 286 286 286 285 285 285 284 283 283 282 282 281 281 280 280
291 291 292 290 288 288 290 291 292 293 295 291 294 296 295 297 298 299 300 300 299 297 296 295 294 294 293 294 293 295 294 293 291 290 289 289 289 288 286 286 286 286 285 285 284 284 283 282 282 282 281 281 280 280
289 292 290 290 288 290 291 292 293 295 294 295 296 297 297 298 299 299 299 298 295 295 296 295 294 294 294 293 293 293 293 292 291 292 292 291 290 287 287 286 286 285 285 284 284 283 283 282 282 282 281 281 280 280
290 288 286 288 289 288 289 291 291 291 292 292 292 292 295 295 296 298 298 298 295 292 293 297 294 292 292 292 293 293 292 291 291 290 290 289 287 286 286 287 286 285 285 284 283 283 282 282 282 281 281 280 280 279
287 287 285 285 284 284 286 287 287 288 288 288 289 289 291 291 291 296 297 296 295 295 294 296 296 293 292 293 293 292 293 292 290 289 289 287 286 286 287 286 286 285 284 283 283 282 282 282 282 281 281 280 279 279
283 284 283 284 284 284 285 287 286 286 286 286 286 286 287 288 291 294 295 295 295 296 294 294 295 292 291 291 292 293 292 290 289 288 287 286 286 286 286 286 285 284 284 283 283 282 282 282 282 281 280 280 279 279

GFSWCAN_850_thetae_084.txt.gz
Theta_e
306 305 304 301 294 298 298 297 305 305 305 305 305 303 303 304 304 305 306 308 308 305 303 303 305 306 308 309 310 310 309 310 311 310 309 308 308 308 308 308 309 309 309 309 309 310 308 307 306 309 306 305 306 306
306 306 305 301 293 298 297 297 304 305 305 304 303 302 303 305 306 306 306 307 307 307 304 304 304 305 306 306 308 308 309 310 309 309 308 307 307 306 307 308 306 307 308 308 308 308 306 306 307 305 305 306 305 305
307 305 305 302 293 298 297 297 304 305 305 304 303 303 303 303 305 306 306 306 307 306 304 304 302 304 305 305 305 307 308 307 308 306 308 307 309 306 307 307 308 307 306 305 306 307 306 306 306 305 305 305 304 304
307 306 305 302 293 298 297 296 301 305 305 305 304 304 304 303 302 303 305 306 307 307 307 304 304 304 305 306 306 305 305 306 306 307 309 307 307 306 306 305 305 306 305 305 305 306 306 306 305 305 304 303 303 302
307 306 305 303 293 298 297 297 298 304 305 305 305 304 304 304 303 302 303 304 304 308 306 303 303 303 304 305 305 305 306 306 307 309 306 306 305 304 303 301 303 305 304 305 304 306 305 304 304 303 303 302 301 301
306 306 305 302 293 298 296 297 296 304 305 305 304 304 305 305 304 303 304 302 304 304 306 304 304 303 303 303 304 304 305 305 305 306 307 304 302 302 303 304 306 307 306 306 305 304 304 303 302 302 302 301 300 299
307 307 305 301 293 298 296 296 295 300 304 304 304 304 304 304 304 303 300 300 301 302 305 305 304 301 301 302 303 303 303 304 304 305 303 304 302 301 302 303 305 306 305 304 303 303 302 301 302 300 300 300 299 298
308 307 305 301 293 297 296 301 302 298 301 304 304 303 303 303 304 303 301 300 301 301 301 300 302 301 300 302 303 302 302 302 302 303 301 300 300 300 300 303 302 302 302 302 301 301 302 301 300 299 299 298 297 294
308 306 305 300 293 297 300 302 302 302 298 304 303 303 301 301 302 303 302 301 300 300 301 301 301 302 299 301 302 302 301 300 302 300 300 299 299 299 301 303 304 303 301 300 300 299 299 299 298 297 296 295 292 291
307 307 305 300 294 299 302 302 303 301 301 304 303 301 301 301 302 302 303 300 300 299 297 301 302 299 301 301 302 303 301 300 298 300 299 297 299 302 303 304 304 302 300 300 299 298 298 297 297 295 293 292 291 292
306 307 305 301 294 301 302 301 301 304 303 302 301 300 299 300 301 301 299 299 300 299 299 299 301 297 300 299 301 301 300 297 298 298 298 299 300 300 302 302 300 299 299 299 299 299 299 298 296 293 292 292 292 291
306 307 306 302 295 301 302 303 303 302 302 301 299 299 299 298 298 296 296 297 296 299 297 298 297 299 298 299 301 299 298 295 297 298 298 299 299 302 300 300 299 298 298 299 298 298 296 294 293 292 292 292 291 289
307 307 306 302 295 300 302 303 303 302 301 299 299 299 298 298 296 295 295 296 296 297 296 296 296 297 297 298 299 297 296 297 297 294 298 300 301 300 298 298 298 298 298 298 297 296 295 294 292 292 292 291 289 288
307 307 306 303 295 298 302 302 301 301 299 298 297 294 295 295 295 298 298 299 298 297 296 298 297 298 297 296 297 296 298 296 292 293 298 297 300 299 298 298 298 298 298 298 297 297 295 293 292 292 291 289 288 288
307 306 306 300 294 297 301 301 301 301 300 298 296 295 296 299 298 298 297 294 293 296 298 297 296 298 295 296 296 294 293 290 294 296 297 302 299 298 298 298 299 298 298 298 298 296 294 292 291 291 289 288 288 287
307 305 304 299 295 297 300 302 301 301 299 297 296 294 296 295 296 295 294 295 294 297 297 297 295 293 294 294 294 292 293 295 299 297 299 298 297 298 298 298 298 299 299 298 297 294 293 292 291 289 288 288 286 286
306 304 305 297 296 298 300 301 300 300 300 297 296 296 296 296 299 296 295 295 294 296 294 296 293 294 291 292 294 294 295 297 301 297 297 296 297 298 298 298 298 298 297 296 295 293 292 290 289 288 288 286 286 286
305 305 305 297 296 298 299 300 300 300 297 297 297 298 296 296 295 295 295 295 295 296 298 294 295 290 293 292 294 296 298 298 297 296 296 296 296 297 297 298 297 297 296 295 293 292 289 289 288 287 286 286 286 286
305 305 304 299 297 298 299 299 299 298 297 297 297 298 297 296 296 296 296 295 295 296 296 293 291 291 294 296 297 299 296 296 296 295 296 296 296 296 297 297 297 296 295 293 291 289 289 288 287 286 286 286 285 285
305 304 303 298 297 298 299 298 297 299 296 296 296 296 296 296 297 297 294 294 293 294 292 290 292 296 297 298 297 296 296 296 295 295 296 296 296 296 296 297 296 295 293 291 289 289 288 287 286 286 286 286 285 284
298 299 300 297 298 298 298 296 295 296 297 296 296 295 296 295 295 294 292 292 292 293 291 295 297 298 298 298 298 298 298 297 297 296 296 296 296 296 296 296 294 292 291 289 289 288 288 286 286 286 285 285 284 283
297 296 297 297 298 298 298 297 296 295 294 293 292 294 292 290 291 293 293 291 292 295 296 296 298 298 298 298 299 300 299 297 297 295 295 295 295 295 295 294 293 291 289 289 289 288 287 286 286 285 285 285 283 283
296 297 297 297 298 296 296 296 295 293 290 290 291 290 292 293 293 293 291 291 293 296 298 298 298 298 297 298 298 298 298 298 297 295 295 295 295 296 294 293 292 290 289 289 288 287 286 286 285 285 285 284 283 282
296 297 297 297 298 295 292 292 294 292 291 290 291 289 291 292 290 289 290 292 296 296 297 298 298 296 296 296 296 297 297 297 297 295 295 295 295 294 294 293 291 289 289 289 288 286 286 285 285 285 284 283 282 282
295 295 296 295 295 290 289 290 289 291 289 290 289 289 287 288 288 289 287 291 296 296 296 297 297 296 296 296 297 297 297 297 296 296 295 295 294 294 292 291 289 289 289 288 287 286 286 285 285 285 284 282 282 282
296 295 295 295 290 288 289 288 290 291 288 288 289 289 288 289 289 289 288 296 297 297 297 297 297 295 295 296 296 296 298 297 295 295 295 295 294 294 292 291 290 289 289 287 286 286 285 285 285 284 283 282 282 281
298 296 295 294 291 291 290 291 292 289 288 289 288 287 289 291 288 289 297 298 297 298 298 297 297 297 298 298 298 297 297 296 295 295 295 294 293 292 291 290 290 289 287 287 286 286 285 285 284 283 282 282 281 281
297 293 290 290 291 291 287 287 287 289 289 291 290 289 291 290 291 298 298 298 298 298 299 298 298 297 298 296 296 296 295 294 293 293 293 292 291 290 289 289 289 288 287 286 286 285 285 285 284 283 282 281 281 281
291 291 291 289 288 289 287 288 289 294 295 291 291 291 288 295 298 297 297 297 298 298 299 298 297 295 294 294 294 294 293 294 292 291 292 291 290 290 289 289 289 287 286 286 285 285 284 284 283 282 282 281 281 281
290 292 289 286 286 288 290 294 294 296 295 296 296 296 296 297 297 297 297 297 298 298 298 298 296 294 294 294 297 297 294 292 292 293 293 293 293 291 290 289 288 287 286 286 285 285 284 283 282 282 282 281 281 281
292 291 288 290 287 291 293 293 293 293 294 293 294 293 295 295 296 297 297 297 298 298 298 298 295 293 293 293 299 300 294 292 291 292 292 293 293 291 290 288 287 286 286 286 285 284 284 283 282 282 282 281 281 281
290 289 288 288 285 285 288 289 290 290 289 289 291 291 292 292 292 295 296 297 297 297 298 297 296 295 294 298 298 293 293 293 291 292 292 291 291 290 288 287 286 286 286 285 284 284 283 282 282 282 281 281 281 280
284 285 284 283 281 281 285 287 286 284 286 286 287 289 291 292 288 296 296 296 297 297 297 296 294 294 296 301 299 292 290 291 292 292 290 290 289 287 287 287 286 286 285 284 284 283 282 282 282 281 281 281 281 280

GFSWCAN_850_thetae_087.txt.gz
Theta_e
303 305 305 304 303 297 298 297 303 304 305 305 304 302 303 304 305 306 307 308 308 306 305 305 305 306 307 308 306 309 308 308 307 306 306 305 305 305 306 306 307 307 305 307 305 307 305 306 305 307 305 305 306 306
303 305 305 305 304 295 297 297 304 305 305 304 303 303 303 304 306 306 306 307 307 307 305 304 305 305 305 306 307 307 308 307 307 306 304 303 305 303 304 304 305 304 304 306 304 305 304 306 306 306 306 306 305 305
303 306 305 305 304 294 298 297 303 305 304 304 304 304 304 303 303 305 305 306 307 306 305 305 305 305 306 306 306 307 307 306 308 305 306 304 306 302 304 303 306 304 304 303 304 304 304 305 306 306 305 305 305 304
304 306 305 305 304 294 298 297 301 305 305 304 304 304 304 304 303 304 305 305 306 307 305 305 305 305 305 305 306 305 305 306 306 306 306 303 304 304 302 302 303 303 303 303 303 303 305 305 305 305 304 304 303 303
304 305 305 305 304 294 298 296 297 304 305 305 304 304 304 304 304 303 303 304 304 307 305 304 304 304 304 305 305 305 305 305 306 307 302 303 303 302 300 299 299 303 302 303 303 304 304 304 304 304 304 303 302 302
305 306 305 305 305 295 298 296 296 302 305 305 305 305 304 305 304 304 305 302 303 304 306 300 303 303 303 304 304 304 304 304 305 306 305 304 302 301 299 300 302 305 305 306 305 305 305 304 303 302 302 302 301 301
305 306 305 304 305 295 297 296 295 297 304 304 304 304 304 304 304 304 302 301 301 302 304 303 301 302 301 301 303 303 303 304 304 305 302 302 302 301 298 301 303 306 305 305 305 305 303 302 302 301 301 301 300 299
305 307 306 305 306 295 297 296 296 296 301 304 303 303 303 303 303 304 304 300 300 302 301 299 296 301 300 301 302 302 303 302 302 302 301 299 299 298 299 299 303 304 305 304 304 303 303 303 301 300 299 299 298 297
306 306 306 305 305 296 296 297 300 302 299 301 304 303 302 302 302 304 304 302 301 301 299 297 291 294 300 301 302 302 301 297 301 298 298 299 297 298 299 301 302 302 303 303 301 301 301 301 300 299 298 297 295 292
306 306 307 306 305 295 297 300 302 302 301 302 303 303 301 301 302 302 303 302 300 299 298 298 300 295 300 300 301 300 300 297 294 298 299 297 297 301 304 303 304 304 303 301 300 299 299 298 298 297 296 293 292 292
307 306 305 307 305 295 299 301 302 301 301 303 302 301 301 300 301 300 300 298 300 297 298 298 300 295 299 296 297 300 296 292 293 295 297 297 301 298 302 302 302 303 303 301 300 299 299 299 298 296 294 292 292 292
306 306 306 307 304 295 300 300 300 301 303 302 301 299 299 299 298 292 289 295 294 295 297 296 298 299 298 299 300 298 295 292 293 296 294 297 298 301 301 300 300 301 300 300 299 299 299 298 296 294 292 292 292 291
306 306 306 306 304 295 300 301 302 302 302 301 299 298 298 297 292 291 292 289 291 296 296 297 294 297 297 298 298 294 294 296 295 290 294 295 298 300 300 299 298 298 299 299 298 297 296 295 294 292 292 292 291 289
306 306 307 306 304 295 300 302 302 302 301 298 298 292 292 289 290 292 291 291 298 297 296 297 297 297 297 295 295 292 295 294 289 289 294 293 300 300 299 298 298 298 298 298 297 296 296 294 293 292 292 291 289 288
307 307 306 305 304 296 301 301 302 300 300 298 297 292 291 296 297 298 299 296 295 296 297 297 296 296 292 293 294 292 290 289 290 292 292 301 299 299 298 298 298 298 298 297 297 297 296 294 292 292 291 289 288 287
308 306 306 305 304 296 301 302 301 300 301 298 296 293 296 294 294 295 296 295 295 296 298 298 291 289 292 291 291 291 289 290 291 290 299 299 298 298 298 298 298 298 298 298 297 297 295 293 292 291 289 288 287 286
307 305 305 305 303 297 301 303 299 300 301 299 296 296 296 295 295 297 296 295 295 297 290 292 289 293 289 288 291 291 291 292 299 300 298 297 296 297 297 298 298 298 298 298 297 296 294 292 291 289 288 287 286 286
306 305 305 305 299 297 299 300 301 300 298 298 297 297 297 297 296 297 296 296 295 296 298 291 294 289 290 290 291 291 297 298 298 296 297 297 296 296 297 297 297 297 297 297 295 294 293 291 289 288 287 286 286 286
304 305 305 304 299 298 299 299 299 298 298 297 297 298 298 297 298 297 296 295 295 296 297 295 286 290 291 291 293 298 299 298 296 297 297 297 297 297 297 297 297 297 296 295 295 293 291 289 288 288 286 286 286 285
305 305 304 302 298 298 299 299 298 299 296 298 297 297 298 298 299 297 296 295 295 295 292 288 291 295 295 298 299 299 299 297 296 297 298 297 297 296 296 296 297 297 295 294 293 291 289 289 288 287 286 286 286 285
303 301 302 298 297 298 299 297 297 297 299 297 296 296 296 295 296 295 295 294 293 293 289 296 297 299 299 299 299 299 297 297 298 297 297 297 296 295 296 296 296 296 295 294 292 290 289 288 287 286 286 286 285 285
300 297 297 296 298 298 298 297 296 295 295 293 293 295 292 290 292 294 296 292 291 294 296 296 298 298 298 299 299 298 299 298 298 298 297 297 297 296 295 296 296 295 295 293 291 289 289 288 286 286 286 285 285 284
296 296 296 296 297 297 297 296 295 293 291 291 291 291 289 291 294 295 293 293 295 297 297 297 299 299 297 298 297 298 298 298 298 298 298 298 297 295 295 295 296 296 294 291 289 289 289 287 286 286 286 285 285 284
296 297 297 297 297 295 294 294 294 291 290 291 291 288 287 290 291 290 291 291 296 297 297 297 297 296 297 297 297 298 298 297 297 297 297 296 295 295 294 294 295 295 293 291 289 289 288 287 286 286 285 285 284 283
296 296 296 296 296 290 289 290 289 289 289 288 287 285 287 288 285 283 285 288 296 297 297 297 296 296 296 297 297 297 297 296 296 296 297 296 295 294 294 293 294 293 292 290 289 289 288 286 286 285 285 284 284 283
297 295 296 296 290 290 288 288 289 290 289 287 288 287 288 284 284 288 285 296 297 298 298 298 298 297 296 297 297 297 297 296 295 294 296 295 295 295 294 294 293 292 291 289 289 288 287 286 285 285 285 284 283 283
296 295 295 295 292 289 289 289 291 289 289 289 287 284 286 289 289 288 297 299 298 300 299 299 298 297 298 297 297 297 296 295 294 295 295 295 295 294 294 294 294 293 291 289 289 288 287 286 285 285 284 284 283 283
298 294 294 291 290 290 287 288 288 289 288 289 289 285 289 290 291 297 299 300 299 298 298 298 298 298 298 297 297 297 296 295 293 293 293 293 293 292 293 293 292 290 289 289 287 287 287 285 285 285 284 283 283 282
292 292 292 289 288 289 287 287 288 291 293 291 293 291 289 294 298 299 299 298 298 298 297 297 297 297 298 297 296 296 295 294 293 293 293 295 293 292 292 292 290 289 289 288 288 287 285 285 285 284 283 283 283 282
290 292 288 290 290 291 290 293 293 296 295 295 296 295 296 298 298 299 298 298 297 297 297 297 297 297 298 298 297 295 294 293 293 293 294 296 295 293 292 291 289 289 289 288 288 286 285 285 284 283 283 283 282 282
291 291 286 287 287 290 292 293 295 294 294 294 295 295 295 297 297 297 297 297 296 296 297 297 297 297 297 297 297 295 294 295 296 296 294 291 291 292 291 290 289 289 288 288 286 286 285 285 283 283 283 283 282 281
291 289 287 286 282 287 289 290 292 292 292 292 293 293 293 293 293 295 296 296 296 296 297 297 297 297 297 296 295 294 294 296 298 296 294 290 289 291 292 290 289 288 289 287 286 285 284 284 283 283 283 282 281 280
286 285 284 283 281 283 286 289 287 286 285 284 288 291 291 292 289 296 296 296 297 297 297 297 297 297 296 295 295 295 298 299 295 291 291 289 290 291 290 290 288 290 287 286 286 285 284 283 283 282 282 282 281 280

GFSWCAN_850_thetae_090.txt.gz
Theta_e
303 303 304 305 305 300 298 296 303 304 304 304 303 304 304 304 304 304 306 307 307 306 305 305 305 305 306 307 305 307 307 307 305 305 305 304 304 303 304 304 306 304 303 305 304 306 303 305 305 304 302 305 306 306
301 303 304 305 305 302 297 296 301 304 304 303 303 304 304 305 306 306 306 306 307 306 305 305 305 306 306 306 306 306 306 306 306 304 302 301 304 300 302 303 303 304 303 304 303 303 302 305 305 306 305 305 305 305
303 304 303 304 305 304 295 296 298 304 304 304 303 303 304 305 306 306 306 307 306 306 305 305 305 305 306 307 306 307 306 306 307 305 304 302 304 300 303 301 303 302 302 303 304 301 302 305 306 306 306 305 305 305
306 304 303 305 305 304 295 297 296 302 305 304 304 304 303 304 304 305 306 306 307 306 305 305 305 305 304 304 305 306 306 305 305 305 305 301 304 302 301 301 301 302 302 302 301 301 303 305 305 306 305 304 304 304
306 305 303 304 305 305 296 297 296 299 304 305 304 304 304 304 304 303 304 305 305 306 305 305 304 303 304 305 304 304 304 304 305 305 300 302 302 300 298 297 298 301 301 303 302 303 303 304 305 305 304 304 303 302
307 305 303 304 305 305 298 297 296 296 302 304 304 304 304 304 304 304 304 303 303 304 305 299 303 303 302 303 304 304 304 304 304 305 303 304 303 302 298 299 301 303 304 305 304 305 305 305 304 304 303 303 302 301
309 305 303 304 304 305 301 296 296 296 299 304 305 304 303 303 304 304 303 301 301 302 304 302 300 302 301 301 302 303 303 303 303 304 302 301 302 301 297 299 302 305 305 305 305 305 303 303 304 303 302 302 301 300
309 307 304 304 305 305 304 295 296 295 296 304 304 303 303 303 303 303 303 302 300 302 302 294 295 300 300 301 302 302 302 302 301 302 300 299 299 298 298 299 302 304 303 304 304 304 304 304 302 301 301 300 299 298
310 308 304 304 304 304 304 294 297 296 296 300 304 304 303 302 302 302 303 302 301 300 301 295 293 294 300 301 301 301 300 297 300 298 297 298 297 298 300 301 303 303 303 304 303 302 302 302 302 300 299 298 298 296
310 309 305 305 304 304 303 295 297 299 301 299 302 304 302 301 301 301 302 302 300 299 299 296 297 295 300 299 299 299 299 296 294 297 298 296 298 301 302 302 302 303 302 302 301 299 300 300 300 299 298 297 295 292
311 309 306 306 304 304 303 296 300 303 301 300 303 303 302 300 301 300 300 297 298 297 298 297 299 295 299 296 296 299 291 291 293 294 297 296 297 299 301 302 301 301 302 302 302 301 300 300 299 298 297 294 292 292
312 310 306 305 305 304 301 299 303 302 301 301 302 300 299 300 299 293 288 293 293 295 297 296 298 299 298 300 299 297 294 290 294 294 293 294 294 300 300 300 300 300 301 302 301 300 299 299 299 298 295 293 292 292
311 310 307 306 305 304 300 300 302 301 301 302 300 298 298 296 292 291 291 289 288 295 296 296 293 297 297 298 297 294 295 295 294 288 293 293 297 299 299 299 299 300 300 300 299 299 299 298 297 295 293 292 292 291
309 309 308 306 305 305 299 301 301 302 302 299 298 293 292 288 291 292 291 290 296 297 296 297 296 296 296 295 293 291 295 293 288 289 293 290 299 299 298 299 298 299 299 299 298 298 297 296 295 293 292 292 291 289
308 308 308 306 305 305 300 300 301 301 301 298 297 292 290 295 295 296 296 297 297 296 297 297 295 296 291 293 293 292 290 289 291 293 290 299 299 297 297 299 298 298 298 298 298 297 296 295 294 292 292 291 289 288
308 307 307 306 305 304 299 300 302 301 299 299 297 291 293 293 291 295 297 295 296 296 297 297 289 289 292 292 291 291 290 291 292 288 299 299 298 297 297 298 298 298 298 298 297 296 296 295 293 292 291 289 288 287
306 305 305 306 305 303 299 301 299 299 300 300 296 297 296 296 297 297 297 297 296 297 291 291 289 293 290 289 292 291 290 291 296 299 298 297 297 297 297 298 298 298 298 298 297 296 296 294 292 292 289 288 287 286
305 304 304 305 304 300 299 299 300 300 299 299 297 298 297 297 297 297 297 297 295 297 295 291 293 290 294 294 292 291 295 299 299 298 297 297 297 298 297 297 297 298 298 298 297 297 296 294 292 291 288 287 286 286
304 303 303 304 303 298 298 298 299 299 298 299 298 298 298 297 298 298 298 297 296 297 297 295 288 292 295 292 292 298 298 299 300 299 298 297 297 298 298 297 297 297 297 297 297 297 295 293 292 289 288 286 286 286
303 303 303 302 302 299 298 298 299 299 297 298 298 298 298 298 299 299 297 296 295 296 293 288 293 295 295 299 299 300 300 299 298 298 298 297 297 297 298 298 296 296 296 296 296 294 293 292 289 288 287 286 286 286
303 304 302 299 297 299 299 298 298 299 299 297 297 297 297 296 296 296 295 295 294 294 288 296 297 299 298 299 299 299 299 299 299 299 299 298 297 297 297 298 297 295 296 296 295 294 293 292 289 288 287 286 286 285
302 301 298 296 297 298 298 298 298 297 296 294 294 296 292 291 293 294 295 292 292 295 297 297 298 298 297 298 299 299 299 298 298 297 297 297 297 297 297 297 296 296 295 295 295 295 294 290 288 288 286 286 286 285
300 298 297 296 296 296 296 296 295 294 290 291 292 292 288 290 294 295 294 294 296 297 298 297 298 298 298 299 299 299 298 297 296 297 297 297 298 298 297 296 297 295 294 295 295 294 292 289 288 287 286 286 285 285
298 297 297 296 296 296 294 294 293 291 291 291 291 292 287 289 291 291 293 291 297 298 299 299 298 297 297 297 297 298 298 297 296 296 297 296 296 296 296 297 296 295 295 295 295 294 290 288 288 287 286 285 285 285
296 295 296 296 295 292 292 292 290 289 289 288 288 286 287 289 291 291 289 289 297 299 300 300 297 297 297 297 296 297 298 296 296 296 296 296 295 295 295 295 295 295 294 294 294 292 290 288 288 286 285 285 285 284
297 295 296 297 291 291 289 289 288 287 288 287 288 286 287 287 287 290 289 295 298 298 300 299 299 297 297 297 297 297 298 297 296 295 297 296 295 294 295 295 295 295 294 293 294 292 289 289 288 286 285 285 285 284
296 295 296 295 293 290 288 289 290 289 290 290 286 285 289 293 292 289 297 300 300 301 301 300 299 299 298 298 298 298 297 296 296 296 296 296 295 295 294 294 295 295 294 294 293 291 289 289 288 286 285 285 285 284
297 295 295 290 289 290 287 288 288 291 291 290 290 289 292 293 292 297 301 301 301 300 300 299 299 298 298 298 297 297 297 297 296 296 296 295 295 295 294 294 293 293 293 293 292 290 289 288 289 286 285 285 284 283
294 293 292 286 287 289 289 290 291 293 294 291 293 291 289 295 299 300 300 300 299 299 299 298 298 297 297 297 297 297 297 297 296 295 295 296 295 296 295 293 292 292 292 291 290 289 287 289 287 285 285 284 283 283
290 293 287 288 289 290 291 294 293 295 295 295 297 296 297 298 299 299 299 298 298 298 298 298 297 297 297 297 297 297 297 297 296 295 295 297 298 295 294 294 292 292 290 289 288 288 291 288 285 285 284 284 283 282
292 291 285 287 286 290 292 292 294 294 293 294 295 296 297 298 298 298 298 298 298 297 297 297 297 297 297 297 297 297 297 297 296 295 295 296 295 293 293 292 291 289 289 288 290 294 291 286 285 285 284 283 283 282
290 289 286 286 282 287 289 291 292 292 292 292 294 293 294 294 294 296 297 297 297 297 298 298 297 297 297 297 297 297 296 296 295 295 296 296 294 294 292 290 290 288 288 288 290 288 286 286 285 284 283 283 282 282
285 286 284 284 284 284 286 289 288 286 287 285 288 291 293 293 290 296 297 298 298 298 297 297 297 297 297 297 296 296 296 295 294 295 298 296 295 292 290 290 289 288 288 290 288 286 286 285 284 284 283 282 282 282

GFSWCAN_850_thetae_093.txt.gz
Theta_e
309 305 304 303 304 305 298 297 297 304 305 304 303 303 303 304 304 305 306 307 307 307 306 306 306 305 306 306 305 307 305 306 303 304 305 303 303 302 303 301 305 302 302 304 303 305 303 304 304 304 301 304 305 306
309 306 303 303 304 304 303 296 296 303 305 304 303 304 303 303 305 305 305 306 306 306 306 306 306 306 307 306 306 306 306 306 305 303 301 300 303 299 300 303 300 304 302 302 302 302 301 305 304 305 306 305 305 306
310 308 303 304 303 305 304 296 297 298 304 304 303 303 304 304 304 305 305 306 306 306 305 305 305 306 306 306 307 307 306 306 306 305 303 301 304 299 303 300 301 301 301 302 303 300 300 305 306 305 306 305 305 305
310 309 307 305 303 304 304 299 297 296 302 304 304 303 303 304 304 304 305 306 306 306 305 305 305 305 305 306 306 305 305 305 305 304 304 300 303 302 301 299 299 301 300 301 300 300 302 304 305 305 306 305 305 304
311 310 308 305 304 304 305 302 295 296 297 303 304 304 304 304 304 303 304 304 305 305 304 304 304 304 304 304 304 304 304 304 304 304 299 301 301 299 297 296 296 300 300 302 301 303 302 303 305 305 305 305 304 304
312 311 309 306 304 304 304 304 295 297 296 299 304 304 304 304 304 304 304 303 302 303 304 299 302 302 301 302 302 303 303 303 303 304 302 303 303 302 298 298 300 303 304 305 303 304 304 304 305 305 304 304 303 303
313 312 311 309 305 303 304 305 297 297 296 297 303 304 304 304 304 304 303 301 300 302 303 302 300 301 301 301 301 302 302 302 302 303 301 300 301 301 297 299 302 304 304 304 303 303 303 304 305 304 304 303 302 301
313 313 312 310 307 303 304 304 300 296 295 296 302 304 303 303 303 303 304 302 301 301 301 293 293 300 300 300 301 301 301 301 301 301 299 298 298 298 298 299 303 303 303 303 304 303 304 304 304 303 302 302 301 300
312 313 312 310 308 304 304 304 302 296 295 295 300 303 303 303 302 302 303 303 303 301 301 296 292 294 299 300 300 301 300 296 299 297 297 297 296 297 299 300 302 302 302 302 302 302 302 303 303 302 301 300 300 298
312 312 312 311 309 305 304 305 302 296 297 299 299 303 303 302 301 301 301 302 302 301 299 295 297 295 299 299 298 298 298 296 293 297 297 296 297 300 302 303 302 301 301 301 301 300 301 301 301 301 301 300 298 297
311 312 311 311 309 306 304 304 302 296 300 301 300 303 302 301 301 300 300 298 297 296 297 296 297 295 298 295 296 298 291 290 293 294 296 295 296 296 301 300 299 300 300 300 302 302 302 301 301 300 299 298 297 294
309 310 310 310 309 306 304 304 300 298 301 301 301 301 301 299 299 293 289 292 292 295 295 295 297 299 298 299 299 297 293 290 294 292 293 295 294 300 299 299 299 300 300 299 300 301 300 300 299 299 298 297 294 293
309 309 309 309 308 306 304 304 300 300 302 301 301 299 298 296 292 290 294 289 287 293 295 295 292 298 297 298 296 293 294 296 293 289 294 293 298 300 299 297 299 300 301 301 300 300 299 299 299 298 297 295 293 292
307 308 308 308 308 306 304 304 300 302 301 301 300 293 292 288 291 292 291 290 295 296 296 298 295 296 296 295 293 291 295 293 289 291 294 291 299 299 297 298 298 299 300 300 300 299 299 299 298 297 294 293 292 292
306 307 307 307 307 306 304 302 301 301 301 300 297 295 291 294 294 295 295 296 296 297 297 296 294 296 291 292 293 291 290 290 292 294 292 299 298 298 297 298 299 298 298 299 299 298 298 297 296 295 293 292 292 290
304 305 306 306 307 306 304 300 301 300 299 298 296 291 293 292 293 294 295 297 297 297 297 297 289 290 292 292 291 292 291 292 294 289 299 299 298 298 298 298 298 298 298 298 298 297 296 295 295 294 293 292 291 289
303 304 305 305 305 306 303 299 299 299 300 300 296 297 296 296 298 296 297 297 296 297 290 290 289 293 290 289 293 291 292 293 296 299 299 298 298 298 299 298 298 298 298 298 297 297 296 294 294 293 293 292 289 288
303 303 303 303 304 304 300 298 300 300 298 299 297 298 296 297 298 297 297 298 296 297 295 291 292 288 292 295 295 292 295 300 299 299 297 297 297 298 299 299 298 297 298 298 297 297 296 295 295 295 292 291 289 288
302 303 303 302 304 300 298 298 298 297 298 299 299 299 298 297 298 299 298 297 297 296 297 293 285 290 295 295 295 298 299 300 300 300 300 299 298 297 297 298 299 299 298 297 297 297 297 296 296 294 292 290 288 287
301 302 303 303 303 300 297 297 298 299 297 298 299 299 298 298 298 299 299 297 296 296 292 287 292 296 296 299 299 300 299 299 298 298 298 299 299 299 297 297 297 297 297 297 296 297 296 296 295 293 291 289 288 287
300 301 303 302 298 299 299 297 298 300 300 298 298 298 297 296 296 296 296 296 294 294 287 297 298 298 299 300 299 298 299 299 298 298 299 299 299 298 297 296 296 296 296 297 297 296 296 296 296 293 291 289 287 286
301 301 301 298 298 298 298 298 299 298 298 294 296 297 294 291 293 294 295 294 295 297 297 297 298 298 298 298 299 299 298 298 298 298 299 298 298 298 297 297 296 296 296 296 296 296 296 296 294 292 290 288 287 286
301 302 298 297 296 295 296 297 296 295 293 292 293 293 289 290 294 295 294 295 298 299 299 298 300 300 300 299 298 299 299 298 298 298 299 298 298 297 297 296 296 296 296 296 296 295 295 295 293 292 289 288 286 286
299 298 297 296 296 295 294 294 294 292 291 292 293 294 289 287 291 291 293 293 300 299 300 300 301 300 298 297 298 300 300 299 299 298 298 297 296 296 296 296 296 295 296 296 295 294 294 294 293 291 288 288 286 286
297 295 296 295 295 293 293 290 290 290 289 287 290 291 289 290 291 291 291 289 299 299 300 301 300 301 298 298 299 300 300 298 297 297 297 296 296 296 296 296 296 295 295 294 294 294 293 293 292 290 288 288 286 286
296 296 295 296 292 291 289 287 288 288 287 287 290 287 288 289 288 289 287 298 300 301 301 301 299 298 298 300 300 300 299 298 296 296 297 297 296 296 296 295 295 295 295 294 294 293 293 293 293 290 288 287 286 285
297 296 295 296 294 291 288 289 289 287 289 291 285 285 289 292 290 289 298 301 301 302 302 302 301 300 300 300 299 298 298 297 297 297 297 297 297 297 296 295 296 295 294 294 294 293 293 293 292 289 288 287 286 285
296 296 295 292 290 289 285 285 286 289 290 289 289 287 290 292 292 298 302 302 303 302 301 300 300 301 299 298 298 298 297 297 297 297 297 297 297 297 296 297 295 295 294 293 293 292 292 293 291 289 288 289 287 285
294 294 293 290 287 288 286 288 289 292 294 290 292 290 288 295 299 301 301 302 302 301 301 300 299 299 298 298 298 297 297 297 297 297 297 297 297 298 298 297 296 295 293 293 292 292 293 291 289 288 291 288 285 284
293 293 292 290 290 289 290 294 293 296 295 296 296 296 296 297 299 300 301 301 302 301 300 300 300 299 299 298 298 297 297 297 297 297 297 298 298 296 297 297 296 294 292 292 292 291 289 288 287 289 287 285 284 284
293 293 289 289 288 291 295 293 293 294 294 295 296 296 297 298 299 299 300 300 300 300 299 298 298 298 298 298 298 298 297 297 297 297 297 297 295 295 296 296 294 293 291 291 291 290 289 288 289 290 286 285 284 283
291 290 288 286 282 289 291 290 292 292 291 292 293 293 294 294 294 297 298 299 299 298 298 298 298 298 298 298 298 297 297 297 296 296 297 296 295 294 294 294 293 291 291 290 289 289 288 292 292 287 285 284 283 283
287 287 285 285 285 284 286 289 288 285 288 287 290 292 293 294 291 298 299 299 298 298 299 299 298 298 298 297 297 296 296 296 296 295 295 294 294 293 295 294 293 291 289 288 288 288 291 290 286 285 284 283 283 282

GFSWCAN_850_thetae_096.txt.gz
Theta_e
311 311 309 306 301 303 305 302 296 297 304 304 303 303 303 303 304 304 305 306 307 306 306 306 306 307 306 305 304 306 303 304 302 303 304 303 302 301 302 300 304 302 301 303 301 304 302 303 304 303 301 304 305 306
312 311 310 307 302 303 304 305 297 296 302 304 303 303 303 303 304 304 305 305 306 306 306 305 306 307 307 307 308 306 305 306 305 301 300 299 303 297 299 303 298 302 301 300 302 302 301 304 304 305 305 305 305 305
312 311 310 309 307 304 303 305 301 297 297 304 304 303 304 304 303 304 305 305 305 306 305 305 305 305 306 306 305 306 306 306 306 305 302 300 303 299 302 299 300 299 299 301 303 301 299 304 306 306 305 305 305 305
313 311 311 310 308 306 304 304 305 296 296 301 304 304 303 304 304 303 304 305 305 306 304 305 305 305 305 305 305 305 304 305 304 304 303 300 302 301 299 299 298 300 299 300 299 299 302 304 304 305 306 305 305 305
314 313 311 311 309 307 305 304 305 298 296 296 302 304 304 303 304 304 303 303 304 305 303 305 304 304 304 304 303 303 303 303 303 303 297 300 300 299 297 295 296 299 299 301 301 302 302 302 304 305 304 305 305 305
313 313 313 311 309 308 305 304 305 303 296 296 297 303 304 304 304 304 304 303 301 302 303 299 302 302 301 301 302 302 302 302 303 303 301 303 302 302 298 298 299 302 303 304 303 303 302 303 304 305 304 304 304 304
312 313 313 312 310 308 306 303 304 305 296 296 296 302 304 304 304 304 303 302 300 300 301 301 299 301 300 300 300 301 301 301 301 302 299 300 300 301 297 299 302 304 304 304 303 303 302 303 304 304 304 304 304 303
310 312 312 312 310 309 307 304 304 304 298 296 295 300 304 303 302 303 303 304 303 301 300 290 293 299 300 299 300 300 300 300 300 300 298 297 298 297 298 299 303 304 303 303 303 302 302 303 304 304 304 303 303 302
307 310 312 311 311 309 307 305 303 303 299 296 295 299 303 303 302 302 302 302 303 303 300 295 292 294 299 299 299 299 299 296 298 296 296 297 296 297 300 301 303 304 302 302 302 302 301 301 302 303 302 302 301 301
304 307 309 311 311 310 308 305 304 303 298 296 296 301 303 302 302 301 301 301 301 301 299 294 297 293 299 297 297 298 297 296 293 297 297 295 297 300 302 303 303 303 301 300 299 300 300 301 302 303 303 302 301 300
303 303 307 309 311 310 308 305 304 303 297 299 298 300 302 301 300 300 299 297 298 295 298 296 297 294 298 294 296 299 291 291 293 293 295 295 296 296 303 302 301 299 299 299 299 301 302 303 303 303 302 301 300 298
303 304 305 307 309 309 308 306 304 303 299 301 299 301 301 300 298 293 290 292 292 295 295 294 296 297 298 299 298 296 293 290 294 292 293 296 295 301 301 300 299 298 299 300 300 299 301 302 301 300 301 300 299 297
302 303 305 307 308 308 307 306 303 303 300 300 301 299 298 296 292 294 296 292 288 294 294 295 292 297 297 298 296 293 293 297 292 289 294 294 297 299 299 298 298 299 301 300 300 299 300 300 299 299 299 299 298 296
303 303 306 306 307 307 307 306 303 301 299 300 298 296 295 290 293 295 295 295 296 295 295 297 295 294 296 294 293 292 295 293 289 294 295 292 300 299 298 297 299 299 300 301 300 300 300 299 299 299 298 298 296 294
298 301 301 305 305 307 306 306 303 300 300 299 298 297 293 295 295 295 296 295 295 296 297 296 294 295 290 292 293 291 291 290 291 294 294 298 299 298 298 297 298 299 299 299 300 299 299 298 298 298 297 295 293 292
296 301 302 303 304 306 305 305 301 299 299 298 297 292 292 292 291 293 294 296 296 296 298 297 290 289 292 291 291 292 292 293 294 289 299 298 298 298 298 298 298 298 298 298 298 298 298 297 297 296 295 294 293 292
297 301 302 303 303 305 305 302 299 298 299 298 297 297 296 296 297 295 296 297 296 297 294 291 291 295 289 287 291 293 294 293 297 299 299 298 298 299 299 300 299 298 298 298 298 298 298 296 295 294 294 294 293 292
297 299 299 302 303 304 301 299 299 299 297 299 298 296 296 298 298 298 297 297 296 296 295 291 292 288 290 293 295 295 296 299 300 298 298 298 298 298 298 299 299 299 299 299 298 298 297 297 296 295 295 293 292 291
296 298 300 301 302 303 300 298 298 296 298 298 299 300 298 297 298 300 300 297 297 297 296 293 285 288 293 294 297 299 300 299 300 300 299 298 298 298 298 297 298 298 298 298 298 298 297 297 297 296 296 294 293 292
298 299 300 301 301 301 298 297 297 298 298 299 299 299 298 299 299 298 300 299 296 296 294 288 290 294 296 299 300 301 300 300 299 299 299 299 299 298 299 298 298 298 296 296 297 297 297 297 297 296 295 294 293 292
297 297 298 299 301 300 298 296 297 299 300 298 298 299 298 296 296 295 296 297 294 295 291 297 299 300 299 300 300 299 299 299 300 300 299 299 300 299 299 298 298 298 297 296 296 296 296 297 297 296 295 295 294 292
297 297 298 299 300 298 297 297 298 298 297 296 296 298 294 291 293 294 295 294 295 299 299 299 300 300 300 301 302 302 301 299 299 299 298 298 298 298 298 298 298 297 297 297 296 296 296 296 296 295 295 295 293 290
298 298 298 299 297 294 296 297 297 296 294 294 295 296 291 290 294 295 294 296 299 300 300 300 300 301 301 303 302 300 300 300 299 299 300 299 299 299 298 298 298 297 296 296 296 295 295 295 294 294 295 294 292 289
297 297 298 296 296 295 294 294 294 292 292 293 294 295 289 289 291 292 293 296 299 299 300 300 300 300 300 299 299 302 300 298 299 298 299 299 298 298 298 297 296 296 296 296 295 295 295 295 294 293 293 293 292 289
297 295 295 295 295 290 291 290 288 290 291 287 290 293 288 290 292 292 293 291 299 299 300 300 300 301 299 299 299 300 301 300 299 299 301 299 298 297 297 297 297 297 296 295 295 295 295 294 293 292 293 292 292 289
296 296 295 294 291 291 289 288 287 286 286 286 290 288 289 290 291 291 287 299 299 300 301 301 300 299 298 299 300 300 301 301 299 298 299 297 297 297 297 297 297 298 297 296 295 294 294 294 293 292 293 292 291 288
296 296 295 296 294 291 287 288 288 284 284 287 285 286 290 293 293 290 299 301 301 301 301 302 301 301 301 301 300 300 300 298 298 297 297 297 297 297 297 298 297 297 296 296 295 294 294 293 293 292 293 292 290 288
294 295 293 293 291 290 283 282 283 285 286 289 287 285 290 292 294 300 302 302 302 301 301 301 301 300 299 300 300 299 297 297 297 297 297 297 298 298 298 298 297 296 296 295 294 294 293 293 292 292 293 292 290 288
293 295 293 291 287 288 288 286 286 290 293 289 289 287 288 295 299 300 301 302 302 303 303 302 303 302 300 300 299 298 297 297 297 297 297 297 297 298 297 297 297 296 296 294 294 293 293 292 292 292 292 291 288 287
292 293 291 284 289 290 291 294 293 296 296 296 296 296 297 298 299 299 300 300 301 301 302 301 301 302 301 299 299 298 298 297 297 297 297 297 297 297 297 297 296 297 297 296 294 292 291 291 291 291 290 288 287 288
294 292 288 287 286 293 295 295 294 294 294 294 295 295 296 297 297 298 299 299 300 300 300 300 300 301 301 299 298 298 298 298 298 298 298 297 296 296 296 296 295 297 297 295 292 291 291 292 292 290 288 287 291 289
291 292 286 283 281 291 293 292 291 292 293 292 293 294 294 293 294 296 298 298 299 299 299 300 299 299 300 300 299 298 298 298 298 298 297 296 296 296 295 295 294 296 296 293 291 291 291 291 289 288 288 292 289 285
289 289 287 285 284 283 287 290 287 288 287 286 290 293 293 294 295 297 298 298 298 299 299 300 300 300 299 299 299 298 298 297 297 297 296 296 295 295 295 295 294 296 295 293 291 291 290 289 288 290 291 288 285 284

GFSWCAN_850_thetae_099.txt.gz
Theta_e
313 312 311 310 308 304 302 304 304 297 297 304 304 304 303 303 303 304 304 306 306 306 306 305 305 306 305 305 302 304 303 303 301 303 303 302 302 300 301 300 301 301 300 301 301 303 302 302 303 303 302 303 305 305
312 313 312 310 310 307 305 304 305 300 296 301 305 304 304 304 303 304 304 305 305 305 305 305 305 305 306 306 307 306 303 304 304 301 300 299 303 296 297 302 297 300 300 300 301 301 300 304 304 306 305 305 305 305
311 312 313 312 310 310 308 306 303 305 297 297 303 304 303 304 304 303 303 304 305 305 305 304 305 305 305 305 305 306 305 305 305 304 301 299 302 298 301 298 299 298 298 300 302 301 299 303 304 305 305 305 305 305
310 311 312 312 311 310 309 307 305 304 299 297 298 304 304 303 304 304 303 303 303 305 303 304 304 304 305 304 304 304 305 305 304 304 303 299 302 300 299 298 297 299 298 298 298 299 302 303 304 304 304 304 305 305
309 310 311 312 312 311 309 307 306 304 304 296 296 300 304 304 303 304 304 304 303 303 302 304 304 303 303 303 303 303 304 303 303 302 297 300 300 298 296 294 295 297 298 300 301 302 302 302 303 304 304 304 304 305
308 309 310 312 312 311 311 310 306 303 305 298 296 296 302 304 304 304 304 303 303 300 302 299 302 301 301 301 301 302 302 302 302 303 301 302 302 301 298 298 299 302 303 303 302 303 302 303 303 304 304 304 304 304
302 307 310 311 312 311 311 310 309 303 303 302 296 296 298 304 304 304 304 302 301 299 300 300 299 300 299 299 299 300 300 301 301 302 299 299 300 302 297 301 302 305 304 304 303 302 301 303 303 303 304 304 304 304
301 302 306 309 310 311 311 310 309 305 303 303 296 296 298 303 304 303 304 303 303 303 301 290 293 297 299 299 299 299 299 299 300 300 298 297 297 297 298 300 303 304 303 303 303 302 302 301 302 303 303 303 303 303
301 302 302 304 309 310 310 309 309 306 304 303 296 296 298 302 303 303 302 302 302 303 299 295 293 294 298 298 298 298 298 295 298 296 296 297 296 298 300 301 303 304 304 303 302 302 301 301 301 301 302 303 302 302
300 301 302 303 304 307 308 308 308 306 304 303 296 297 301 302 302 301 301 300 300 300 300 294 296 292 298 297 297 297 297 295 292 296 296 295 298 299 302 303 303 303 303 302 301 300 299 300 301 301 302 302 302 301
300 301 301 302 302 304 307 308 307 304 303 299 298 298 301 301 301 300 299 297 298 295 298 297 297 294 298 295 296 298 290 292 292 293 295 296 296 296 301 302 301 302 301 300 299 298 298 300 301 301 302 302 301 300
297 300 301 302 302 304 306 307 306 304 303 301 299 300 300 300 298 293 290 292 292 296 295 294 295 297 297 298 298 295 293 291 295 291 295 297 295 300 300 300 300 298 297 298 299 300 299 299 301 301 300 301 300 300
296 297 300 302 302 303 305 307 306 305 302 299 299 300 298 297 292 295 297 292 290 294 294 294 293 298 297 297 295 293 295 298 292 287 293 293 297 299 299 298 298 298 299 301 300 299 299 300 300 300 299 299 300 299
295 296 296 301 302 303 305 306 306 304 300 299 299 298 294 290 292 294 295 294 297 296 295 297 295 294 296 295 293 294 295 292 290 295 294 291 299 299 298 298 299 300 300 300 302 300 300 300 300 299 299 299 299 298
294 295 296 296 298 301 304 305 305 303 299 299 298 299 295 296 295 296 297 295 295 296 297 296 294 295 291 293 293 291 291 292 293 295 292 299 299 298 298 298 299 299 299 299 299 300 301 300 299 298 298 298 298 297
293 295 296 296 297 301 301 304 303 300 300 299 297 293 293 291 291 293 294 295 296 296 298 296 291 290 293 292 292 293 293 294 295 290 299 298 298 298 299 299 299 299 299 299 299 299 298 299 299 298 298 297 297 295
293 295 296 296 298 302 303 303 300 298 299 297 296 298 296 295 297 296 296 296 296 296 296 294 295 297 290 287 290 292 294 297 297 299 299 298 298 299 299 300 300 300 300 300 300 300 299 299 298 298 297 297 296 295
294 295 295 297 299 300 302 301 299 298 296 298 298 297 297 298 298 297 296 296 296 296 295 295 292 292 293 291 292 294 297 299 300 300 299 298 298 298 298 299 299 299 299 299 299 299 299 299 298 298 297 296 295 294
293 294 295 296 298 300 301 298 298 296 297 298 298 298 299 298 299 299 300 299 297 297 296 292 293 290 292 292 296 299 300 302 300 301 300 299 298 298 297 298 298 298 298 298 298 298 298 298 298 298 297 296 295 294
293 294 295 297 298 300 299 297 296 296 297 299 298 298 299 299 300 299 299 299 297 296 295 295 293 294 295 299 299 300 301 301 300 300 301 301 300 299 299 299 299 299 298 298 297 297 297 297 297 297 297 296 295 294
293 294 295 297 299 299 299 297 296 296 297 297 297 298 298 296 296 296 296 298 295 295 294 299 299 300 301 301 300 300 300 299 299 300 300 300 300 300 300 300 299 298 298 298 297 298 297 296 296 296 296 296 296 295
294 295 295 296 297 297 298 298 297 297 297 296 295 298 295 291 292 294 295 295 295 298 299 300 300 299 300 301 302 303 303 302 302 300 299 299 298 299 300 300 298 298 298 299 298 298 297 297 296 295 295 294 295 295
294 295 295 297 297 297 296 296 296 296 295 294 295 296 294 290 293 294 294 295 298 299 299 299 299 300 300 301 301 301 302 301 301 301 300 300 300 300 300 300 299 299 298 299 298 297 296 295 295 295 294 294 294 294
294 295 296 296 296 292 293 293 295 294 294 293 294 293 289 288 292 293 294 295 299 299 299 299 299 299 300 300 300 301 300 299 300 300 299 298 298 300 300 301 300 300 298 297 296 296 296 295 295 294 294 293 293 293
295 295 296 295 295 292 291 290 286 290 289 283 290 290 287 290 292 293 289 292 299 299 299 299 300 300 299 300 300 299 299 299 300 300 300 300 300 299 300 300 300 298 296 296 296 296 296 295 294 294 294 293 293 293
295 295 294 292 290 291 289 287 289 285 284 284 289 287 289 291 292 293 288 299 299 300 300 300 300 298 298 299 299 299 301 300 299 299 300 299 299 299 299 299 298 298 297 297 296 296 296 295 294 294 293 293 292 292
296 294 295 295 294 291 288 287 287 283 284 289 284 287 290 293 292 290 299 300 300 301 300 300 300 299 300 300 300 300 300 300 299 299 298 298 298 298 297 297 297 297 297 297 296 296 296 294 294 293 293 292 291 292
294 293 291 292 291 290 284 282 284 285 285 287 286 285 289 291 293 299 300 301 301 300 300 301 300 303 302 301 300 299 299 299 298 297 297 297 297 297 297 297 297 297 297 296 296 296 295 294 294 293 293 292 292 291
293 294 293 291 288 288 289 286 285 289 291 288 287 287 287 296 298 299 299 299 300 300 300 300 300 300 300 300 299 299 298 298 298 297 297 297 297 298 297 297 297 297 297 296 296 295 295 294 293 292 292 291 291 291
291 293 290 286 289 291 291 293 293 296 295 295 295 296 297 297 298 298 298 298 298 299 299 299 300 299 299 300 300 300 299 298 298 297 297 298 299 298 297 297 297 297 296 296 297 295 294 293 292 292 291 291 290 289
293 292 291 288 285 293 295 295 295 294 294 294 295 294 295 295 296 297 297 297 297 297 298 298 298 299 299 299 299 300 300 299 299 298 297 298 298 297 297 296 296 296 296 297 296 295 294 293 292 291 291 291 290 288
290 291 286 284 283 291 292 291 292 292 293 293 293 294 293 293 292 295 295 295 296 296 297 298 298 298 299 299 299 299 299 300 299 299 298 298 297 297 296 296 296 295 295 296 296 295 294 291 291 291 291 290 288 287
291 290 286 286 282 282 287 290 287 284 286 285 291 293 293 292 291 295 296 296 297 297 297 297 298 298 298 299 299 299 299 298 299 298 297 297 297 297 296 296 295 295 294 295 296 294 291 291 291 290 289 287 289 291

GFSWCAN_850_thetae_102.txt.gz
Theta_e
311 311 312 313 312 311 309 307 305 304 299 297 303 305 304 303 303 303 303 304 305 305 305 305 305 305 305 305 308 304 306 305 306 308 308 307 307 305 305 305 305 306 307 307 307 309 309 303 305 307 307 302 305 306
311 310 311 311 312 312 311 309 307 305 304 297 298 304 304 303 304 303 303 304 304 305 305 305 305 305 305 305 307 306 304 305 305 307 305 305 307 304 304 306 300 305 305 306 307 309 304 304 307 306 304 305 305 305
307 308 310 310 311 312 311 311 308 306 304 299 296 300 304 303 303 304 303 304 304 304 304 304 305 304 304 304 305 306 305 306 305 305 305 305 307 305 307 305 305 303 301 305 306 306 304 303 304 305 305 305 305 305
306 307 309 310 310 311 311 311 310 308 305 304 296 296 301 304 303 303 304 304 303 304 304 305 304 304 304 304 303 303 304 305 305 304 305 306 307 304 306 304 303 305 301 304 304 305 304 304 302 303 303 303 302 304
303 304 306 308 309 310 311 311 311 310 307 305 299 296 296 301 304 304 303 304 304 303 305 304 303 303 303 303 303 303 302 303 303 303 304 306 304 303 302 300 304 303 304 305 306 305 305 304 303 303 304 304 303 302
300 301 303 306 308 309 311 311 311 310 309 304 305 297 296 297 303 304 304 303 303 301 301 304 302 301 301 301 301 301 301 301 302 303 304 303 302 302 306 307 305 302 303 304 305 304 303 303 303 304 303 303 303 303
298 299 300 301 304 308 309 310 310 310 309 306 304 300 296 296 302 304 303 301 300 299 300 302 302 300 300 299 299 299 300 301 301 302 301 301 301 302 305 307 306 305 304 304 304 302 302 303 302 303 303 303 304 303
297 298 299 301 301 304 308 310 309 308 308 305 304 303 296 296 300 303 303 303 303 303 302 301 302 297 298 298 299 298 298 299 299 301 298 300 299 300 304 306 305 304 303 303 304 303 302 302 302 301 302 302 303 303
298 299 300 301 301 302 303 308 309 308 307 304 304 303 296 296 299 302 302 302 302 302 300 297 302 305 297 297 298 298 298 301 298 300 299 299 303 301 304 304 303 303 303 303 303 302 302 301 300 301 301 301 302 302
297 298 299 300 300 301 302 304 307 307 306 303 303 299 297 301 301 301 300 300 300 300 300 297 297 299 298 297 298 299 296 301 302 301 296 299 302 301 302 303 303 303 303 303 301 301 302 301 299 300 301 301 302 302
296 296 298 300 300 301 302 302 305 307 304 303 301 298 299 301 301 300 298 298 298 298 299 297 297 298 297 300 302 299 300 299 302 301 300 302 302 300 302 301 301 301 301 303 303 301 299 298 299 301 302 302 302 302
294 296 296 297 299 300 301 302 304 306 305 303 301 299 300 300 299 297 298 294 295 300 297 295 295 297 297 298 300 296 300 296 301 294 297 300 301 300 300 300 300 299 299 298 298 300 300 299 299 301 301 301 302 301
293 294 295 296 297 298 301 301 303 305 305 301 300 299 299 298 296 298 298 298 297 296 294 293 296 298 297 297 297 298 299 299 293 297 299 301 299 299 299 299 298 297 298 300 301 300 300 300 299 301 301 300 300 300
292 293 293 295 296 297 299 301 303 303 303 301 298 299 298 298 296 298 299 300 298 296 295 296 295 296 296 297 297 299 298 295 298 298 301 301 299 301 301 298 297 299 299 300 301 301 300 300 301 301 300 299 299 299
291 292 293 293 295 296 296 299 302 303 301 299 298 301 299 297 296 296 297 296 296 295 296 296 295 295 296 297 295 295 295 297 298 302 302 299 300 299 298 298 298 299 299 299 299 300 300 301 301 301 301 300 299 299
292 291 291 293 294 295 296 297 301 301 300 300 298 299 294 294 294 294 295 295 296 296 297 296 295 296 299 297 295 297 298 299 302 298 299 299 299 298 299 299 299 299 300 299 300 300 300 300 299 299 299 299 299 298
292 292 292 292 294 296 298 301 301 298 298 296 296 299 297 295 299 298 298 297 297 296 299 297 298 300 293 296 296 296 298 300 299 299 299 299 299 299 299 300 300 300 300 300 300 300 300 300 300 299 299 299 298 297
292 292 292 292 294 297 298 299 299 297 295 297 297 298 296 299 299 299 298 297 296 297 296 297 294 295 297 298 298 297 296 299 300 302 302 301 299 298 298 299 300 299 299 299 299 299 299 299 299 299 299 298 297 296
292 292 292 292 294 296 297 298 298 296 296 297 297 297 298 298 298 299 299 298 298 298 299 294 295 297 298 296 297 299 299 302 304 303 303 302 300 299 298 297 298 298 298 298 298 298 298 298 298 298 298 297 297 297
291 291 291 292 294 295 296 297 296 296 296 298 298 298 298 298 299 298 298 297 297 296 295 295 296 299 296 300 301 301 300 300 302 303 304 305 307 304 300 300 299 299 300 302 301 298 298 298 298 297 297 297 296 296
292 292 291 291 294 295 296 297 295 296 297 296 297 297 298 297 296 296 295 295 295 295 297 298 300 300 301 301 301 300 300 299 299 300 301 303 303 303 303 302 302 299 300 302 300 299 298 298 298 298 298 297 295 295
292 291 291 292 294 296 296 296 297 296 295 295 295 296 296 293 293 295 295 294 295 298 298 300 300 300 300 300 301 302 302 301 302 302 302 302 300 300 299 299 298 299 299 299 299 299 300 298 298 297 296 296 295 294
292 292 292 293 295 295 295 295 295 295 295 295 295 296 296 292 294 295 294 295 297 298 299 299 300 300 300 300 300 300 299 299 299 299 300 299 299 299 299 300 300 299 299 300 300 300 300 298 297 296 295 294 294 294
292 292 292 293 295 295 294 293 293 294 294 294 295 295 292 292 292 293 296 294 298 299 299 299 299 298 298 298 298 298 299 299 299 299 299 299 298 298 299 299 300 299 299 299 299 299 297 296 296 295 295 294 294 294
292 292 293 294 294 293 292 292 293 292 293 289 291 292 290 290 293 294 292 294 298 298 299 299 298 298 298 298 299 299 299 299 299 299 299 299 299 299 299 299 299 299 299 298 299 298 296 296 295 295 295 294 294 293
293 293 293 293 291 290 290 293 291 289 286 289 290 288 289 292 293 293 291 298 299 299 299 299 299 299 298 298 298 298 299 299 299 299 299 299 299 299 299 298 298 299 299 298 297 297 296 296 296 295 295 294 293 292
291 290 294 294 294 292 289 287 287 285 285 288 285 289 291 293 292 292 298 299 299 299 299 299 299 298 298 298 301 303 301 298 298 298 298 298 298 298 297 297 298 299 297 296 297 297 297 296 296 295 294 293 293 293
293 293 293 293 292 291 286 286 285 285 287 287 287 289 293 293 295 298 299 299 299 299 299 299 299 298 298 299 301 301 302 302 299 298 298 298 298 297 297 297 296 297 297 296 296 296 296 296 295 295 294 293 293 292
292 292 293 290 289 287 289 287 287 290 292 289 291 291 289 297 298 298 298 298 298 298 298 297 296 297 297 298 298 298 300 301 299 298 298 298 298 298 297 297 297 296 296 296 296 296 295 295 295 294 293 292 292 291
291 292 292 288 291 291 291 293 294 295 295 295 295 295 295 297 297 297 298 297 296 296 295 295 295 295 296 296 297 297 298 299 299 299 298 299 299 298 297 297 297 297 296 296 296 296 295 295 295 295 293 292 291 291
292 292 291 291 291 292 293 294 294 294 293 292 293 292 294 295 295 295 295 295 295 295 294 294 294 294 295 295 296 296 297 298 298 299 300 300 299 297 297 297 297 296 296 296 296 296 296 296 295 293 292 291 291 291
291 290 288 288 287 291 290 290 292 292 293 292 292 293 292 292 293 295 294 294 294 294 294 294 295 296 297 296 297 297 297 298 298 299 299 300 300 298 296 297 297 296 296 295 295 296 296 295 293 292 291 290 290 290
289 289 288 286 283 283 288 288 285 284 283 284 289 292 292 293 293 294 294 294 294 295 295 296 297 297 297 296 297 297 297 297 297 297 298 298 299 299 296 298 298 296 295 294 294 295 295 293 292 290 290 290 290 288

GFSWCAN_850_thetae_105.txt.gz
Theta_e
312 311 311 311 312 312 311 310 309 308 306 304 298 301 304 303 304 303 303 304 305 308 307 305 305 306 306 307 308 307 308 308 309 309 308 309 309 308 307 308 307 308 309 310 310 311 311 308 307 308 308 305 308 308
310 308 307 308 309 311 311 311 310 309 307 305 301 298 302 304 303 303 303 303 304 304 307 305 305 305 305 305 307 307 308 308 308 308 308 308 308 308 307 306 305 307 307 309 309 310 307 307 309 308 305 307 307 307
307 306 306 306 308 310 310 311 311 310 309 306 305 299 297 301 303 303 303 303 303 304 305 305 305 304 304 304 305 307 307 307 306 306 308 308 308 308 308 308 307 307 306 306 306 308 308 306 306 306 306 306 306 306
305 304 304 306 307 309 309 310 311 310 310 309 305 303 298 297 301 304 303 303 303 303 305 307 304 303 304 304 304 304 305 305 305 305 307 308 308 306 307 307 307 307 304 305 306 306 306 306 306 305 304 304 303 303
303 303 303 303 305 307 309 309 310 310 310 310 308 305 301 298 296 301 304 304 303 303 305 305 304 303 303 303 303 303 303 303 305 306 307 308 307 306 306 306 307 306 306 306 307 307 307 306 304 303 303 303 303 303
301 302 302 301 301 302 306 308 309 310 310 310 309 306 304 299 297 301 304 302 302 302 301 305 303 301 301 300 300 300 301 302 304 305 306 307 305 305 307 308 308 307 306 306 306 304 304 304 303 303 303 304 303 303
298 298 298 299 299 300 301 306 308 309 310 309 308 306 304 300 297 299 304 301 299 300 299 304 305 300 300 299 298 299 300 301 302 304 305 305 304 303 307 307 308 308 307 306 305 304 303 303 303 304 303 303 303 303
296 296 297 299 299 301 301 301 305 308 309 308 308 306 304 303 298 297 299 302 303 303 303 304 306 299 298 300 301 298 300 300 301 303 302 302 303 303 307 306 306 307 306 305 304 304 304 304 303 303 303 302 302 302
296 297 298 299 301 301 301 301 303 305 308 307 306 305 304 301 297 300 300 301 302 302 303 302 304 309 297 299 299 298 299 302 301 301 302 302 304 305 306 305 306 306 305 305 304 303 303 302 303 302 301 301 301 301
295 296 296 298 299 300 300 301 302 305 307 306 305 304 299 299 300 300 300 299 299 300 300 300 301 303 299 299 301 301 300 303 303 303 299 300 302 303 304 304 305 305 304 303 302 302 302 301 302 302 300 298 300 300
294 295 295 296 297 299 300 301 302 303 305 305 303 303 301 300 301 300 300 300 301 300 300 300 300 303 299 302 304 301 304 302 304 304 301 305 305 304 302 302 302 303 302 302 301 302 302 302 301 300 299 300 300 301
292 293 294 295 296 296 299 300 302 302 305 304 304 302 300 300 299 299 301 298 298 302 301 299 298 298 298 299 301 299 302 299 303 298 300 302 304 302 301 301 300 299 299 299 300 300 300 299 299 298 299 301 301 302
291 292 293 293 295 296 297 299 301 302 303 301 302 301 299 299 299 301 300 301 302 300 297 296 298 299 297 298 300 300 301 301 296 300 302 304 304 302 300 300 300 298 298 299 300 301 301 300 300 300 300 301 300 300
291 291 292 292 293 294 296 297 302 302 302 301 299 300 300 302 300 302 302 304 301 298 296 298 298 299 298 299 301 301 302 298 302 301 303 306 303 301 301 300 298 298 299 300 301 301 301 301 301 301 301 301 300 300
292 292 292 291 292 293 295 295 298 301 300 300 298 302 300 300 299 298 299 298 297 296 296 297 297 298 299 300 299 299 299 300 302 305 307 303 300 300 299 298 298 299 299 299 300 300 300 300 300 300 300 300 300 299
291 292 292 292 292 292 293 295 296 300 300 300 298 298 298 298 300 297 297 296 297 297 297 297 298 299 300 300 299 300 302 303 307 304 301 300 300 299 297 298 298 298 299 300 300 300 300 300 300 301 300 300 299 298
291 293 293 293 292 293 295 297 298 298 299 298 297 300 300 302 302 302 299 299 297 297 300 299 300 300 296 299 299 301 302 305 302 301 301 301 301 301 298 298 298 298 299 299 300 300 300 300 300 300 301 299 301 299
293 292 292 292 292 293 294 296 297 298 295 298 297 299 297 299 301 301 299 298 297 297 299 301 298 298 300 302 303 302 299 299 300 301 304 303 302 302 300 298 298 299 299 299 299 299 299 299 299 299 299 299 299 298
293 292 292 292 292 293 294 296 296 297 297 298 298 298 297 298 299 299 299 299 298 298 298 297 300 299 301 302 302 303 301 301 300 302 302 302 305 304 304 304 306 306 305 298 297 298 298 298 298 300 299 299 298 297
292 293 292 291 292 293 295 295 296 296 297 297 297 298 297 298 299 298 298 298 296 295 297 297 299 301 301 302 302 302 302 302 301 300 299 300 302 302 303 304 304 304 304 304 304 304 304 298 299 302 302 300 297 296
293 293 293 292 292 292 294 295 294 295 296 296 296 297 297 296 297 297 296 295 295 295 298 298 299 300 301 301 301 301 300 300 298 299 299 300 300 300 300 300 300 301 301 302 302 303 302 301 302 301 299 301 300 296
293 293 293 293 292 292 293 293 295 295 295 296 296 296 297 296 296 295 296 295 295 297 297 299 299 300 300 300 300 300 300 300 300 299 299 299 299 299 299 299 299 300 300 300 300 300 299 299 299 300 301 299 298 297
293 293 293 292 292 292 293 293 294 295 296 296 295 297 297 297 295 295 296 295 297 298 299 298 298 298 299 299 299 299 299 300 299 299 299 299 299 299 299 299 298 298 298 299 299 298 299 299 298 297 297 297 297 296
293 293 293 292 292 293 293 293 294 295 295 296 296 296 297 296 292 293 297 297 297 297 297 297 298 298 298 298 298 299 299 298 298 298 299 298 298 298 298 298 298 298 298 298 297 298 298 297 297 297 296 296 295 295
293 293 292 294 292 293 293 294 294 296 295 295 296 297 294 291 294 295 296 296 296 297 297 297 298 298 298 298 298 299 301 299 298 298 298 298 298 298 298 298 298 298 298 297 298 298 298 298 297 296 296 295 294 294
293 292 293 292 293 293 293 293 293 294 295 294 294 294 291 294 295 296 297 296 296 297 297 298 298 298 299 299 298 299 300 301 300 298 300 299 298 298 298 298 298 298 297 297 297 297 298 298 297 296 295 295 294 293
292 293 292 292 293 292 292 289 290 291 291 292 294 291 292 294 296 296 297 297 297 297 297 297 298 298 299 298 298 298 298 298 299 300 300 301 299 297 297 297 297 298 297 297 297 296 296 296 296 295 295 295 294 294
292 292 291 292 291 292 292 292 291 291 291 291 290 292 294 295 296 296 296 296 297 298 298 298 298 298 298 297 297 296 295 295 297 298 299 300 300 300 299 298 297 297 296 296 296 295 296 295 295 295 295 295 294 294
292 292 292 291 291 290 291 292 293 292 293 292 292 294 293 295 295 295 296 296 295 296 297 297 297 297 296 296 296 295 295 294 295 296 297 298 300 301 302 299 297 297 296 295 296 296 295 295 294 294 294 294 293 292
291 291 292 291 290 291 292 292 292 292 294 294 293 293 294 295 295 295 295 295 296 296 297 297 297 296 296 296 295 294 294 294 294 294 295 297 298 300 302 301 297 297 296 296 296 295 295 294 294 294 295 294 293 292
291 291 291 291 291 291 291 292 292 292 291 291 292 291 293 294 294 294 294 295 296 296 296 295 294 294 294 294 294 293 294 294 294 295 295 295 297 299 300 301 298 297 297 296 296 295 295 295 294 294 294 293 293 292
291 291 291 291 291 291 290 289 289 290 291 291 290 291 290 291 292 293 294 294 294 293 294 294 294 293 294 294 293 294 294 295 295 295 295 295 296 297 298 299 299 296 298 298 296 295 295 295 294 294 294 293 291 291
290 290 290 290 291 290 289 288 287 288 288 288 290 292 293 293 293 293 293 293 293 293 293 293 293 293 294 294 295 295 295 295 296 296 296 296 296 296 297 298 300 298 296 299 299 297 294 294 294 294 293 291 291 290

GFSWCAN_850_thetae_108.txt.gz
Theta_e
312 311 311 309 308 308 311 311 311 310 310 306 305 298 299 304 304 304 303 303 304 307 307 307 306 305 306 306 306 307 308 307 308 308 306 307 306 305 305 306 306 306 306 306 306 308 307 306 306 305 305 306 308 307
311 311 309 307 306 307 309 310 311 310 310 309 305 303 298 299 303 303 304 304 303 303 304 305 304 305 305 307 307 308 308 308 308 306 305 305 305 304 304 303 304 304 304 305 306 307 306 307 307 308 306 307 307 307
311 311 307 305 306 307 308 309 310 310 310 310 309 305 303 299 298 303 304 303 304 304 305 306 306 305 304 304 304 305 308 307 307 307 307 306 306 305 305 304 305 304 305 303 305 303 305 306 307 306 307 307 306 306
311 309 306 304 303 304 307 309 309 310 309 309 310 309 306 302 298 297 301 303 303 303 304 306 306 305 304 304 304 304 305 306 306 306 307 305 306 307 304 303 304 305 304 303 302 304 305 305 306 306 306 306 305 305
309 306 305 302 302 302 302 306 309 309 310 309 309 310 309 306 301 298 299 303 303 303 304 304 303 303 303 303 303 303 303 303 304 305 304 305 306 305 304 303 305 305 305 304 304 304 305 306 306 305 305 305 304 304
306 304 304 302 301 300 300 301 303 308 309 310 309 310 310 308 304 298 304 302 302 302 301 302 304 302 301 301 301 301 302 302 304 305 306 307 307 306 302 303 305 307 306 306 305 306 306 305 304 304 304 304 303 303
303 302 301 300 299 298 299 300 300 304 308 308 308 309 309 308 307 300 303 301 300 301 301 302 304 301 300 299 299 300 300 301 302 303 304 305 305 305 302 305 305 307 307 307 307 306 306 305 305 304 304 303 303 303
297 296 296 296 296 297 299 300 301 301 306 307 308 307 307 307 306 304 301 298 301 302 302 300 301 300 298 300 300 299 300 300 301 302 303 302 303 303 303 304 305 306 306 306 307 306 306 304 304 304 304 303 303 302
295 295 295 296 297 299 300 300 300 301 303 306 307 306 305 305 301 300 300 300 300 302 303 302 301 304 298 300 300 299 300 301 301 300 301 301 300 302 302 303 304 305 306 306 306 305 304 304 304 304 303 302 302 301
295 295 295 296 296 298 299 300 300 301 303 305 306 305 304 299 300 300 300 299 299 300 300 298 301 300 300 299 301 301 300 301 302 300 301 300 301 302 303 303 303 303 305 306 305 304 304 303 303 303 302 302 301 299
292 293 294 295 296 296 298 300 301 301 302 304 304 304 303 301 301 300 299 299 300 300 300 299 300 300 300 300 301 301 299 300 302 298 299 299 302 302 304 303 301 301 302 304 304 303 302 302 302 302 302 300 299 300
291 292 292 293 294 295 296 298 301 302 302 303 303 303 303 301 299 299 300 299 298 300 302 300 299 299 299 299 300 300 299 298 300 298 298 299 299 303 302 301 301 300 299 299 299 300 301 301 301 300 298 298 300 301
290 290 291 292 292 293 295 296 300 301 302 301 302 302 299 299 300 301 300 299 299 300 298 297 297 298 298 298 300 298 298 299 297 294 297 298 302 302 300 300 299 298 298 298 298 300 300 300 300 300 300 299 301 300
290 290 290 291 292 292 293 295 296 300 300 301 300 301 299 300 299 300 299 300 301 301 299 298 299 299 299 298 300 299 299 297 296 299 297 297 304 299 299 299 299 298 298 299 300 300 300 301 301 301 301 301 301 300
289 289 291 292 292 291 292 293 296 297 299 300 298 299 299 299 301 300 301 300 298 298 298 297 298 298 297 299 298 298 297 296 296 298 297 304 300 300 299 298 298 298 298 298 299 299 300 300 300 300 300 299 300 300
289 290 291 291 292 292 292 292 294 297 298 299 299 297 299 298 299 299 298 297 298 297 297 298 297 296 297 297 299 295 297 297 297 298 302 301 302 302 302 301 299 299 299 298 299 299 300 300 300 300 300 300 299 300
290 292 292 292 293 292 292 294 296 296 296 298 297 299 299 299 300 301 301 300 299 297 295 298 299 299 296 299 297 295 296 297 303 302 302 301 302 302 302 305 303 299 299 299 300 300 300 299 299 299 299 299 300 302
291 292 291 292 292 292 292 294 295 296 297 297 296 297 298 299 299 300 301 300 299 297 299 299 300 299 299 298 296 297 300 302 303 302 302 301 302 303 302 302 302 303 301 304 305 305 304 301 299 298 299 298 299 303
292 291 292 292 292 293 292 294 294 295 296 296 297 297 298 298 299 299 299 300 300 298 298 297 299 298 296 297 300 302 302 302 302 302 302 302 302 302 301 301 301 301 301 301 304 303 303 303 303 303 303 304 298 298
291 291 292 292 293 293 293 294 294 294 295 295 295 296 297 298 298 298 298 299 298 296 296 297 297 299 300 301 301 301 302 302 302 301 301 300 300 300 300 300 300 300 301 301 301 300 300 301 301 302 302 302 303 301
291 291 292 293 294 293 293 293 294 294 294 295 295 296 297 297 297 297 296 297 296 296 297 297 298 298 299 299 299 300 300 300 300 300 300 299 300 299 299 299 300 299 299 299 299 299 299 300 301 300 300 301 301 299
291 291 293 293 294 293 293 293 293 294 294 294 295 296 296 296 296 296 296 296 296 296 297 297 298 298 298 298 300 299 299 299 300 300 300 300 300 299 299 299 299 299 299 299 299 299 299 299 298 298 298 297 297 297
291 292 293 293 293 293 293 292 292 293 290 293 294 294 294 297 296 296 295 295 296 296 296 296 297 298 298 298 298 298 298 297 298 298 298 298 298 298 298 298 298 298 298 298 299 299 298 299 298 297 297 297 296 296
291 292 293 293 292 293 292 292 292 293 293 291 288 291 289 294 294 294 294 295 296 296 297 297 297 297 297 297 297 297 297 297 297 298 299 299 299 300 299 298 298 298 298 298 298 298 298 298 297 298 297 296 295 295
291 292 292 293 293 293 293 291 290 288 288 288 288 290 289 293 293 294 294 294 295 295 295 295 295 296 296 296 296 297 298 298 298 299 299 301 301 300 300 300 299 298 298 298 298 298 298 297 297 297 296 295 295 297
291 291 291 293 293 292 289 285 287 288 290 287 289 294 294 291 294 294 290 294 294 294 295 295 295 296 296 296 297 297 299 299 298 297 297 297 297 300 299 300 301 300 299 298 297 297 297 297 296 296 296 296 296 296
291 288 291 291 292 292 290 291 291 288 285 287 286 286 288 293 292 292 294 294 294 295 295 295 296 297 297 297 297 297 298 298 297 296 296 295 295 296 297 299 300 301 299 297 296 296 296 296 296 296 295 295 295 294
290 291 288 291 292 291 287 286 285 286 286 292 290 288 292 293 294 295 294 294 296 296 296 295 295 297 296 296 296 297 297 297 296 295 295 295 295 294 294 295 297 299 301 297 296 296 296 296 295 295 294 294 294 294
291 291 291 288 290 291 291 288 289 292 292 292 291 291 291 292 292 292 293 293 293 294 294 294 295 295 295 295 295 296 296 296 295 294 294 294 294 294 294 294 295 297 301 298 297 296 296 295 295 295 294 294 293 293
291 291 290 289 288 287 291 291 291 291 291 292 292 292 292 292 292 292 292 292 293 293 294 294 294 294 294 294 295 295 295 295 294 293 293 293 293 295 295 294 295 297 301 300 298 297 296 295 295 295 294 294 293 293
291 291 291 291 290 291 291 291 291 291 291 291 291 291 291 291 291 292 292 292 292 293 294 293 293 293 293 294 294 294 293 293 293 293 293 293 293 294 295 295 294 295 298 299 297 298 296 295 295 294 294 293 293 292
291 291 290 290 290 291 291 291 290 290 290 290 290 290 290 289 289 290 290 291 291 292 292 292 293 293 293 293 293 293 293 293 293 293 294 294 294 294 295 295 294 295 296 297 296 298 298 297 295 294 293 293 293 292
290 291 290 290 289 290 290 289 288 287 289 289 289 290 290 290 290 291 291 291 292 292 293 293 293 293 293 293 293 293 293 293 293 294 294 294 294 295 295 295 294 295 296 296 296 295 298 299 298 294 293 293 292 291

GFSWCAN_850_thetae_111.txt.gz
Theta_e
311 311 312 311 308 307 307 309 310 310 311 310 306 305 300 299 302 303 303 303 303 304 304 307 306 305 306 306 303 306 304 306 305 305 303 303 303 303 304 303 303 304 303 304 304 306 306 305 305 304 302 306 306 306
311 311 311 311 308 306 306 308 309 310 310 310 310 307 305 300 299 301 303 303 304 304 303 304 305 305 304 305 307 307 306 306 307 303 301 301 303 301 301 301 301 303 304 305 305 306 305 306 305 307 307 307 306 306
311 311 311 310 307 305 305 307 309 309 309 309 310 310 308 306 301 298 300 302 303 303 304 305 306 305 304 304 305 305 305 306 307 306 305 302 305 300 303 300 302 302 303 301 304 302 303 305 307 307 307 307 307 307
311 310 310 309 306 304 304 304 307 309 309 308 308 309 310 308 305 302 299 300 302 303 303 304 305 305 304 303 303 303 304 306 306 306 305 302 303 303 301 302 300 302 303 301 300 303 303 305 305 305 305 305 305 305
310 309 309 308 304 304 303 303 302 305 308 308 308 308 309 309 307 303 302 302 303 303 302 304 303 303 302 303 302 303 302 303 304 304 301 302 304 304 302 300 304 304 304 303 304 305 304 304 305 306 305 305 305 304
311 310 308 306 304 304 303 301 300 301 303 307 308 308 308 309 308 307 304 301 300 300 301 299 302 302 301 300 301 301 301 302 302 304 303 305 306 305 301 300 302 306 306 306 304 305 304 305 305 305 305 305 304 303
309 307 303 303 303 303 302 299 299 300 301 304 307 307 308 308 307 307 303 302 301 301 302 300 300 301 299 300 300 300 300 301 302 303 302 303 304 305 299 301 304 305 305 305 305 305 304 304 305 305 305 304 304 304
303 303 301 300 299 297 298 297 298 300 301 302 306 306 307 306 306 306 305 303 300 300 302 297 299 300 298 300 300 299 300 300 301 301 302 302 302 302 301 302 304 304 304 304 305 306 305 305 305 305 304 304 303 303
297 296 296 296 296 296 297 298 299 299 299 301 304 306 306 305 303 302 301 300 300 301 302 299 299 300 299 300 300 299 300 300 300 299 300 300 298 301 302 302 303 303 303 303 303 303 305 306 304 304 304 303 303 302
295 295 295 295 295 296 297 298 298 299 301 304 304 305 305 302 300 301 299 299 299 300 300 297 299 298 299 299 300 299 299 300 301 300 300 300 300 301 302 303 303 301 301 300 301 303 304 304 304 303 303 302 301 301
293 294 294 295 295 295 296 298 300 301 301 302 302 303 303 302 302 300 299 298 299 300 299 299 299 297 299 297 298 300 295 300 300 300 300 299 300 300 303 302 300 300 300 299 301 302 302 302 301 301 301 301 301 298
291 292 292 292 294 295 295 297 300 300 301 302 302 302 302 301 300 299 299 298 298 300 299 299 299 299 299 299 299 299 295 298 299 296 298 298 296 302 302 299 300 299 298 297 297 297 298 299 299 299 299 299 299 300
290 290 290 291 292 293 294 296 299 299 299 300 300 301 301 299 299 300 298 298 298 298 299 298 296 298 298 298 298 296 298 298 295 290 295 295 300 302 300 299 299 298 298 299 299 300 300 300 299 300 299 299 300 300
290 290 290 290 290 292 292 294 295 299 299 300 299 299 298 297 299 297 294 293 299 301 299 298 298 298 298 296 297 295 296 296 292 297 296 294 302 302 301 298 297 298 299 299 299 299 300 300 300 300 300 300 300 300
289 289 290 290 290 291 291 292 294 298 300 298 299 299 298 298 299 300 300 300 298 299 298 298 298 297 294 295 297 295 294 294 292 295 296 302 302 301 301 301 302 301 299 299 300 300 300 300 300 300 300 301 300 300
289 290 290 289 291 292 291 292 294 297 298 298 298 297 298 297 298 298 299 299 299 298 298 298 295 294 296 294 298 294 291 292 295 293 302 302 301 301 301 302 302 302 302 301 299 299 300 300 300 301 301 300 300 299
291 291 290 291 291 292 292 291 293 295 296 297 296 297 297 297 298 299 300 300 299 298 293 296 298 296 295 297 296 293 292 296 300 302 302 302 301 302 302 302 302 302 302 301 302 300 299 302 303 302 301 301 299 299
292 291 290 291 293 292 293 294 295 295 295 295 294 296 295 297 298 298 299 300 300 298 298 294 298 297 294 293 294 293 299 301 301 301 301 301 302 301 302 302 301 300 301 300 300 300 300 299 299 302 302 302 300 299
290 290 290 291 293 293 293 293 293 293 294 295 295 296 296 297 297 297 298 298 299 299 299 298 298 297 297 297 298 300 301 301 300 300 300 301 301 301 300 300 299 299 299 299 299 299 300 300 300 300 300 300 300 300
291 292 291 291 292 293 292 292 293 293 292 293 294 294 294 294 294 295 296 297 298 297 297 297 297 298 298 300 299 298 297 298 299 299 299 299 299 299 299 299 299 299 299 299 299 299 299 299 299 300 300 300 301 301
291 291 291 291 292 293 293 293 292 292 293 294 294 294 294 295 295 295 296 296 296 296 296 296 296 296 297 297 296 296 297 297 298 298 298 298 298 298 299 299 299 298 298 298 298 299 299 299 299 299 299 298 298 298
291 291 290 290 291 292 293 293 292 293 293 292 294 294 294 294 295 295 295 295 295 296 296 296 296 296 296 296 296 297 297 297 297 298 298 298 298 298 297 297 298 298 299 299 299 298 298 298 298 298 298 298 298 297
291 291 292 292 292 293 293 293 292 292 290 290 292 290 287 291 294 294 294 295 295 295 295 295 295 295 296 296 296 296 296 297 296 296 296 296 296 297 298 299 300 300 300 300 300 299 298 298 298 298 298 298 297 297
291 291 292 292 293 293 292 292 292 292 291 283 279 282 282 290 292 291 287 293 293 293 294 295 295 295 295 295 295 296 295 295 296 296 296 296 297 298 300 299 299 299 300 300 300 300 299 298 298 298 297 297 297 296
292 292 291 291 293 292 292 290 289 289 289 284 283 282 283 292 283 280 286 292 293 293 293 293 293 294 294 294 295 295 295 295 295 295 297 297 298 298 297 296 295 295 295 297 299 300 300 298 297 297 297 296 296 295
290 290 290 289 285 288 288 286 286 287 283 280 283 290 292 283 285 291 288 292 292 293 293 294 294 294 294 294 294 295 296 297 296 296 297 298 298 298 297 296 295 294 294 294 294 295 297 298 296 296 296 295 295 295
290 288 290 290 291 291 288 289 289 286 287 288 282 281 283 288 288 289 292 292 292 292 293 293 294 294 294 294 295 295 295 296 296 295 295 296 296 296 296 295 295 293 293 293 293 293 294 297 297 296 296 296 295 294
290 291 286 290 291 291 284 282 282 284 287 290 287 284 286 287 291 291 292 291 292 292 293 293 292 292 293 293 294 293 294 294 295 294 294 295 295 296 295 294 293 293 294 294 294 295 298 298 297 296 295 295 295 294
290 290 290 283 288 288 288 286 288 290 290 290 289 290 290 291 291 291 291 291 291 292 292 291 291 292 292 292 292 291 293 294 293 292 293 294 294 294 294 293 293 293 294 294 294 296 298 297 297 296 295 295 295 294
289 289 289 288 284 286 289 290 290 290 290 290 290 290 290 290 291 291 291 291 291 291 291 291 292 291 291 292 292 291 291 292 292 292 293 293 293 293 293 293 293 293 294 294 294 296 297 296 295 297 295 295 295 294
290 290 290 289 289 290 290 290 290 290 290 289 290 289 290 290 290 290 290 291 291 291 291 291 291 291 291 291 291 291 291 292 292 292 293 293 293 293 293 293 293 293 294 294 294 295 296 295 294 295 296 296 296 295
291 290 289 286 289 290 290 290 290 290 290 289 289 289 289 289 289 290 290 290 290 290 290 290 290 290 291 291 291 291 292 292 292 292 293 293 293 293 293 293 293 293 293 294 294 294 294 295 293 294 297 296 295 294
290 290 290 289 288 289 290 289 289 285 289 289 289 289 290 290 289 290 290 290 290 290 290 290 291 291 291 291 291 292 292 292 292 292 293 293 293 293 294 294 294 293 293 293 293 294 294 294 293 296 298 296 293 294